Time,TemperatureF,DewpointF,PressureIn,WindDirection,WindDirectionDegrees,WindSpeedMPH,WindSpeedGustMPH,Humidity,HourlyPrecipIn,Conditions,Clouds,dailyrainin,SoftwareType,DateUTC
2013-07-06 00:01:00,71.8,30.9,24.98,ESE,117,2.7,2.7,22,0.00,,---,0.00,VWS V14.01,2013-07-06 05:01:00,
2013-07-06 00:02:00,71.6,30.8,24.98,ESE,119,2.7,2.7,22,0.00,,---,0.00,VWS V14.01,2013-07-06 05:02:00,
2013-07-06 00:06:00,71.6,30.8,24.98,SE,130,2.7,2.7,22,0.00,,---,0.00,VWS V14.01,2013-07-06 05:06:00,
2013-07-06 00:07:00,71.6,30.8,24.98,SE,130,3.6,3.6,22,0.00,,---,0.00,VWS V14.01,2013-07-06 05:07:00,
2013-07-06 00:11:00,71.6,30.8,25.01,SE,129,3.1,3.1,22,0.00,,---,0.00,VWS V14.01,2013-07-06 05:11:00,
2013-07-06 00:12:00,71.6,30.8,25.01,SE,129,2.7,3.1,22,0.00,,---,0.00,VWS V14.01,2013-07-06 05:12:00,
2013-07-06 00:13:00,71.6,30.8,25.01,SE,129,2.7,2.7,22,0.00,,---,0.00,VWS V14.01,2013-07-06 05:13:00,
2013-07-06 00:16:00,71.6,30.8,25.01,SE,129,3.1,3.1,22,0.00,,---,0.00,VWS V14.01,2013-07-06 05:16:00,
2013-07-06 00:17:00,71.6,30.8,25.01,SE,129,3.6,3.6,22,0.00,,---,0.00,VWS V14.01,2013-07-06 05:17:00,
2013-07-06 00:18:00,71.4,30.6,25.01,SE,129,2.7,3.6,22,0.00,,---,0.00,VWS V14.01,2013-07-06 05:18:00,
2013-07-06 00:19:00,71.4,30.6,25.01,SE,129,2.2,2.7,22,0.00,,---,0.00,VWS V14.01,2013-07-06 05:19:00,
2013-07-06 00:22:00,71.2,30.5,25.01,SE,129,0.0,0.0,22,0.00,,---,0.00,VWS V14.01,2013-07-06 05:22:00,
2013-07-06 00:23:00,71.2,30.5,25.01,SE,129,0.0,0.0,22,0.00,,---,0.00,VWS V14.01,2013-07-06 05:23:00,
2013-07-06 00:24:00,71.1,30.3,25.01,SE,129,0.0,0.0,22,0.00,,---,0.00,VWS V14.01,2013-07-06 05:24:00,
2013-07-06 00:27:00,70.5,29.9,25.01,SE,129,0.0,0.0,22,0.00,,---,0.00,VWS V14.01,2013-07-06 05:27:00,
2013-07-06 00:28:00,70.5,29.9,25.01,SE,129,0.0,0.0,22,0.00,,---,0.00,VWS V14.01,2013-07-06 05:28:00,
2013-07-06 00:29:00,70.3,29.7,25.01,SE,129,0.0,0.0,22,0.00,,---,0.00,VWS V14.01,2013-07-06 05:29:00,
2013-07-06 00:30:00,70.2,29.6,25.01,SE,129,0.0,0.0,22,0.00,,---,0.00,VWS V14.01,2013-07-06 05:30:00,
2013-07-06 00:32:00,70.0,29.4,25.01,SE,129,0.0,0.0,22,0.00,,---,0.00,VWS V14.01,2013-07-06 05:32:00,
2013-07-06 00:33:00,70.0,29.4,25.01,SE,129,0.0,0.0,22,0.00,,---,0.00,VWS V14.01,2013-07-06 05:33:00,
2013-07-06 00:34:00,70.0,29.4,25.01,SE,129,0.0,0.0,22,0.00,,---,0.00,VWS V14.01,2013-07-06 05:34:00,
2013-07-06 00:35:00,70.0,29.4,25.01,SE,129,0.0,0.0,22,0.00,,---,0.00,VWS V14.01,2013-07-06 05:35:00,
2013-07-06 00:37:00,69.4,29.0,25.01,SE,129,0.0,0.0,22,0.00,,---,0.00,VWS V14.01,2013-07-06 05:37:00,
2013-07-06 00:39:00,69.3,29.9,25.01,SE,129,0.0,0.0,23,0.00,,---,0.00,VWS V14.01,2013-07-06 05:39:00,
2013-07-06 00:40:00,69.3,29.9,25.01,SE,129,0.0,0.0,23,0.00,,---,0.00,VWS V14.01,2013-07-06 05:40:00,
2013-07-06 00:41:00,69.3,29.9,25.01,SE,129,0.0,0.0,23,0.00,,---,0.00,VWS V14.01,2013-07-06 05:41:00,
2013-07-06 00:42:00,69.1,29.8,25.01,SE,129,0.0,0.0,23,0.00,,---,0.00,VWS V14.01,2013-07-06 05:42:00,
2013-07-06 00:44:00,68.9,29.6,25.01,SE,129,0.0,0.0,23,0.00,,---,0.00,VWS V14.01,2013-07-06 05:44:00,
2013-07-06 00:45:00,68.9,29.6,25.01,SE,129,0.0,0.0,23,0.00,,---,0.00,VWS V14.01,2013-07-06 05:45:00,
2013-07-06 00:46:00,68.9,29.6,25.01,SE,129,0.0,0.0,23,0.00,,---,0.00,VWS V14.01,2013-07-06 05:46:00,
2013-07-06 00:47:00,68.9,29.6,25.01,SE,129,0.0,0.0,23,0.00,,---,0.00,VWS V14.01,2013-07-06 05:47:00,
2013-07-06 00:49:00,68.9,29.6,25.01,SE,129,0.0,0.0,23,0.00,,---,0.00,VWS V14.01,2013-07-06 05:49:00,
2013-07-06 00:50:00,68.9,29.6,25.01,SE,129,0.0,0.0,23,0.00,,---,0.00,VWS V14.01,2013-07-06 05:50:00,
2013-07-06 00:51:00,68.9,29.6,25.01,SE,129,0.0,0.0,23,0.00,,---,0.00,VWS V14.01,2013-07-06 05:51:00,
2013-07-06 00:53:00,68.7,29.5,25.01,SE,129,0.0,0.0,23,0.00,,---,0.00,VWS V14.01,2013-07-06 05:53:00,
2013-07-06 00:54:00,68.7,29.5,25.01,SE,129,0.0,0.0,23,0.00,,---,0.00,VWS V14.01,2013-07-06 05:54:00,
2013-07-06 00:55:00,68.7,29.5,25.01,SE,129,0.0,0.0,23,0.00,,---,0.00,VWS V14.01,2013-07-06 05:55:00,
2013-07-06 00:57:00,68.7,29.5,25.01,SE,129,0.0,0.0,23,0.00,,---,0.00,VWS V14.01,2013-07-06 05:57:00,
2013-07-06 00:58:00,68.7,29.5,25.01,SE,129,0.0,0.0,23,0.00,,---,0.00,VWS V14.01,2013-07-06 05:58:00,
2013-07-06 01:00:00,68.5,29.3,25.01,SE,129,0.0,0.0,23,0.00,,---,0.00,VWS V14.01,2013-07-06 06:00:00,
2013-07-06 01:02:00,68.5,29.3,25.01,SE,129,0.0,0.0,23,0.00,,---,0.00,VWS V14.01,2013-07-06 06:02:00,
2013-07-06 01:04:00,68.5,29.3,25.01,SE,129,0.0,0.0,23,0.00,,---,0.00,VWS V14.01,2013-07-06 06:04:00,
2013-07-06 01:05:00,68.5,29.3,25.01,SE,129,0.0,0.0,23,0.00,,---,0.00,VWS V14.01,2013-07-06 06:05:00,
2013-07-06 01:07:00,68.0,28.9,25.01,SE,129,0.0,0.0,23,0.00,,---,0.00,VWS V14.01,2013-07-06 06:07:00,
2013-07-06 01:08:00,67.8,29.7,25.01,SE,129,0.0,0.0,24,0.00,,---,0.00,VWS V14.01,2013-07-06 06:08:00,
2013-07-06 01:09:00,67.8,29.7,25.01,SE,129,0.0,0.0,24,0.00,,---,0.00,VWS V14.01,2013-07-06 06:09:00,
2013-07-06 01:11:00,67.6,29.6,25.01,SE,129,0.0,0.0,24,0.00,,---,0.00,VWS V14.01,2013-07-06 06:11:00,
2013-07-06 01:12:00,67.5,29.4,25.01,SE,129,0.0,0.0,24,0.00,,---,0.00,VWS V14.01,2013-07-06 06:12:00,
2013-07-06 01:13:00,67.5,29.4,25.01,SE,129,0.0,0.0,24,0.00,,---,0.00,VWS V14.01,2013-07-06 06:13:00,
2013-07-06 01:14:00,67.3,29.3,25.01,SE,129,0.0,0.0,24,0.00,,---,0.00,VWS V14.01,2013-07-06 06:14:00,
2013-07-06 01:16:00,67.3,29.3,25.01,SE,129,0.0,0.0,24,0.00,,---,0.00,VWS V14.01,2013-07-06 06:16:00,
2013-07-06 01:18:00,67.1,29.1,25.01,SE,129,0.0,0.0,24,0.00,,---,0.00,VWS V14.01,2013-07-06 06:18:00,
2013-07-06 01:20:00,66.9,29.0,25.01,SE,129,0.0,0.0,24,0.00,,---,0.00,VWS V14.01,2013-07-06 06:20:00,
2013-07-06 01:21:00,66.9,29.0,25.01,SE,129,0.0,0.0,24,0.00,,---,0.00,VWS V14.01,2013-07-06 06:21:00,
2013-07-06 01:23:00,66.7,28.8,25.01,SE,129,0.0,0.0,24,0.00,,---,0.00,VWS V14.01,2013-07-06 06:23:00,
2013-07-06 01:25:00,66.4,28.5,25.01,SE,128,0.0,0.0,24,0.00,,---,0.00,VWS V14.01,2013-07-06 06:25:00,
2013-07-06 01:26:00,66.4,28.5,25.01,SE,124,3.1,3.1,24,0.00,,---,0.00,VWS V14.01,2013-07-06 06:26:00,
2013-07-06 01:28:00,66.2,28.4,25.01,SE,124,2.2,3.1,24,0.00,,---,0.00,VWS V14.01,2013-07-06 06:28:00,
2013-07-06 01:29:00,66.2,28.4,25.01,SE,124,2.7,2.7,24,0.00,,---,0.00,VWS V14.01,2013-07-06 06:29:00,
2013-07-06 01:30:00,66.2,28.4,25.01,SE,124,2.7,2.7,24,0.00,,---,0.00,VWS V14.01,2013-07-06 06:30:00,
2013-07-06 01:33:00,66.2,28.4,25.01,ESE,123,3.6,3.6,24,0.00,,---,0.00,VWS V14.01,2013-07-06 06:33:00,
2013-07-06 01:35:00,65.8,29.1,25.01,NW,309,4.0,4.0,25,0.00,,---,0.00,VWS V14.01,2013-07-06 06:35:00,
2013-07-06 01:38:00,65.8,29.1,25.01,NW,317,3.1,3.6,25,0.00,,---,0.00,VWS V14.01,2013-07-06 06:38:00,
2013-07-06 01:39:00,65.8,29.1,25.01,NW,322,4.0,4.0,25,0.00,,---,0.00,VWS V14.01,2013-07-06 06:39:00,
2013-07-06 01:40:00,65.8,29.1,25.01,NW,324,3.1,4.0,25,0.00,,---,0.00,VWS V14.01,2013-07-06 06:40:00,
2013-07-06 01:41:00,65.8,29.1,25.01,NNW,333,3.1,3.1,25,0.00,,---,0.00,VWS V14.01,2013-07-06 06:41:00,
2013-07-06 01:44:00,65.7,28.9,25.01,NNW,333,3.1,3.1,25,0.00,,---,0.00,VWS V14.01,2013-07-06 06:44:00,
2013-07-06 01:45:00,65.7,28.9,25.01,NNW,335,4.9,4.9,25,0.00,,---,0.00,VWS V14.01,2013-07-06 06:45:00,
2013-07-06 01:46:00,65.7,28.9,25.01,NNW,332,3.1,4.9,25,0.00,,---,0.00,VWS V14.01,2013-07-06 06:46:00,
2013-07-06 01:49:00,65.7,28.9,25.01,NNW,336,4.0,4.0,25,0.00,,---,0.00,VWS V14.01,2013-07-06 06:49:00,
2013-07-06 01:50:00,65.5,28.8,25.01,NNW,340,2.7,2.7,25,0.00,,---,0.00,VWS V14.01,2013-07-06 06:50:00,
2013-07-06 01:51:00,65.5,28.8,25.01,NNW,329,3.6,3.6,25,0.00,,---,0.00,VWS V14.01,2013-07-06 06:51:00,
2013-07-06 01:54:00,65.5,28.8,25.01,NNW,337,3.6,3.6,25,0.00,,---,0.00,VWS V14.01,2013-07-06 06:54:00,
2013-07-06 01:55:00,65.5,28.8,25.01,North,353,2.7,2.7,25,0.00,,---,0.00,VWS V14.01,2013-07-06 06:55:00,
2013-07-06 01:56:00,65.5,28.8,25.01,NNW,336,3.1,3.1,25,0.00,,---,0.00,VWS V14.01,2013-07-06 06:56:00,
2013-07-06 01:59:00,65.1,29.4,25.01,NNW,333,2.7,2.7,26,0.00,,---,0.00,VWS V14.01,2013-07-06 06:59:00,
2013-07-06 02:00:00,65.1,28.5,25.01,NNW,330,4.0,4.0,25,0.00,,---,0.00,VWS V14.01,2013-07-06 07:00:00,
2013-07-06 02:01:00,65.1,29.4,25.01,NNW,330,4.0,4.0,26,0.00,,---,0.00,VWS V14.01,2013-07-06 07:01:00,
2013-07-06 02:02:00,64.9,29.3,25.01,NNW,333,4.0,4.0,26,0.00,,---,0.00,VWS V14.01,2013-07-06 07:02:00,
2013-07-06 02:04:00,64.9,29.3,25.01,NW,316,4.0,4.0,26,0.00,,---,0.00,VWS V14.01,2013-07-06 07:04:00,
2013-07-06 02:06:00,64.8,29.1,25.01,NW,316,3.6,3.6,26,0.00,,---,0.00,VWS V14.01,2013-07-06 07:06:00,
2013-07-06 02:07:00,64.8,29.1,24.98,NW,315,4.0,4.0,26,0.00,,---,0.00,VWS V14.01,2013-07-06 07:07:00,
2013-07-06 02:09:00,64.6,29.0,24.98,NW,304,3.6,3.6,26,0.00,,---,0.00,VWS V14.01,2013-07-06 07:09:00,
2013-07-06 02:11:00,64.4,28.8,24.98,NW,312,3.1,4.0,26,0.00,,---,0.00,VWS V14.01,2013-07-06 07:11:00,
2013-07-06 02:12:00,64.4,28.8,24.98,NW,314,4.0,4.0,26,0.00,,---,0.00,VWS V14.01,2013-07-06 07:12:00,
2013-07-06 02:13:00,64.4,28.8,24.98,NW,317,3.6,3.6,26,0.00,,---,0.00,VWS V14.01,2013-07-06 07:13:00,
2013-07-06 02:14:00,64.4,28.8,24.98,NW,321,5.4,5.4,26,0.00,,---,0.00,VWS V14.01,2013-07-06 07:14:00,
2013-07-06 02:16:00,64.4,28.8,24.98,NW,324,4.0,4.0,26,0.00,,---,0.00,VWS V14.01,2013-07-06 07:16:00,
2013-07-06 02:17:00,64.4,28.8,24.98,NW,324,4.9,4.9,26,0.00,,---,0.00,VWS V14.01,2013-07-06 07:17:00,
2013-07-06 02:18:00,64.2,30.5,24.98,NW,317,4.0,4.9,28,0.00,,---,0.00,VWS V14.01,2013-07-06 07:18:00,
2013-07-06 02:20:00,64.2,30.5,24.98,NW,326,2.7,3.1,28,0.00,,---,0.00,VWS V14.01,2013-07-06 07:20:00,
2013-07-06 02:21:00,64.0,30.3,24.98,NW,326,2.7,2.7,28,0.00,,---,0.00,VWS V14.01,2013-07-06 07:21:00,
2013-07-06 02:22:00,64.0,30.3,24.98,NW,326,2.7,3.1,28,0.00,,---,0.00,VWS V14.01,2013-07-06 07:22:00,
2013-07-06 02:24:00,64.0,30.3,24.98,NNW,327,3.1,3.1,28,0.00,,---,0.00,VWS V14.01,2013-07-06 07:24:00,
2013-07-06 02:25:00,64.0,30.3,24.98,NNW,333,4.0,4.0,28,0.00,,---,0.00,VWS V14.01,2013-07-06 07:25:00,
2013-07-06 02:26:00,64.0,30.3,24.98,NNW,334,2.7,2.7,28,0.00,,---,0.00,VWS V14.01,2013-07-06 07:26:00,
2013-07-06 02:27:00,64.0,30.3,24.98,NNW,334,2.7,2.7,28,0.00,,---,0.00,VWS V14.01,2013-07-06 07:27:00,
2013-07-06 02:29:00,63.9,30.1,24.98,NNW,337,3.6,3.6,28,0.00,,---,0.00,VWS V14.01,2013-07-06 07:29:00,
2013-07-06 02:30:00,63.9,30.1,24.98,NNW,335,2.7,2.7,28,0.00,,---,0.00,VWS V14.01,2013-07-06 07:30:00,
2013-07-06 02:32:00,63.9,30.1,24.98,NNW,335,2.7,2.7,28,0.00,,---,0.00,VWS V14.01,2013-07-06 07:32:00,
2013-07-06 02:34:00,63.9,30.1,24.98,NNW,333,3.1,3.6,28,0.00,,---,0.00,VWS V14.01,2013-07-06 07:34:00,
2013-07-06 02:35:00,63.5,29.8,24.98,NNW,333,3.6,3.6,28,0.00,,---,0.00,VWS V14.01,2013-07-06 07:35:00,
2013-07-06 02:37:00,63.5,29.8,24.98,NNW,333,2.2,2.7,28,0.00,,---,0.00,VWS V14.01,2013-07-06 07:37:00,
2013-07-06 02:39:00,63.5,30.7,24.98,NNW,333,3.6,3.6,29,0.00,,---,0.00,VWS V14.01,2013-07-06 07:39:00,
2013-07-06 02:41:00,63.3,31.4,24.98,NNW,333,3.6,3.6,30,0.00,,---,0.00,VWS V14.01,2013-07-06 07:41:00,
2013-07-06 02:42:00,63.3,31.4,24.98,NNW,334,2.7,3.6,30,0.00,,---,0.00,VWS V14.01,2013-07-06 07:42:00,
2013-07-06 02:43:00,63.3,31.4,24.98,NNW,334,3.6,3.6,30,0.00,,---,0.00,VWS V14.01,2013-07-06 07:43:00,
2013-07-06 02:44:00,63.1,31.2,24.98,NNW,335,0.0,4.0,30,0.00,,---,0.00,VWS V14.01,2013-07-06 07:44:00,
2013-07-06 02:46:00,63.1,31.2,24.98,NNW,335,0.0,0.0,30,0.00,,---,0.00,VWS V14.01,2013-07-06 07:46:00,
2013-07-06 02:47:00,63.1,31.2,24.98,NNW,335,0.0,0.0,30,0.00,,---,0.00,VWS V14.01,2013-07-06 07:47:00,
2013-07-06 02:48:00,63.1,31.2,24.98,NNW,335,0.0,0.0,30,0.00,,---,0.00,VWS V14.01,2013-07-06 07:48:00,
2013-07-06 02:49:00,63.1,31.2,24.98,NNW,335,0.0,0.0,30,0.00,,---,0.00,VWS V14.01,2013-07-06 07:49:00,
2013-07-06 02:51:00,63.1,31.2,24.98,NNW,335,0.0,0.0,30,0.00,,---,0.00,VWS V14.01,2013-07-06 07:51:00,
2013-07-06 02:52:00,63.1,31.2,24.98,NNW,335,0.0,0.0,30,0.00,,---,0.00,VWS V14.01,2013-07-06 07:52:00,
2013-07-06 02:53:00,63.1,31.2,24.98,NNW,335,0.0,0.0,30,0.00,,---,0.00,VWS V14.01,2013-07-06 07:53:00,
2013-07-06 02:55:00,63.1,32.0,24.98,NNW,335,0.0,0.0,31,0.00,,---,0.00,VWS V14.01,2013-07-06 07:55:00,
2013-07-06 02:56:00,63.1,32.0,24.98,NNW,335,0.0,0.0,31,0.00,,---,0.00,VWS V14.01,2013-07-06 07:56:00,
2013-07-06 02:57:00,63.1,32.0,24.98,NNW,335,0.0,0.0,31,0.00,,---,0.00,VWS V14.01,2013-07-06 07:57:00,
2013-07-06 02:58:00,63.1,32.0,24.98,NNW,335,0.0,0.0,31,0.00,,---,0.00,VWS V14.01,2013-07-06 07:58:00,
2013-07-06 03:00:00,63.1,32.0,24.98,NNW,335,0.0,0.0,31,0.00,,---,0.00,VWS V14.01,2013-07-06 08:00:00,
2013-07-06 03:01:00,63.0,31.9,24.98,NNW,335,0.0,0.0,31,0.00,,---,0.00,VWS V14.01,2013-07-06 08:01:00,
2013-07-06 03:02:00,63.0,31.9,24.98,NNW,335,0.0,0.0,31,0.00,,---,0.00,VWS V14.01,2013-07-06 08:02:00,
2013-07-06 03:03:00,63.0,31.9,24.98,NW,313,0.0,0.0,31,0.00,,---,0.00,VWS V14.01,2013-07-06 08:03:00,
2013-07-06 03:05:00,63.0,31.9,24.98,NW,324,3.1,3.6,31,0.00,,---,0.00,VWS V14.01,2013-07-06 08:05:00,
2013-07-06 03:06:00,63.0,31.9,24.98,NW,324,0.0,0.0,31,0.00,,---,0.00,VWS V14.01,2013-07-06 08:06:00,
2013-07-06 03:07:00,63.0,31.9,24.98,NW,324,0.0,0.0,31,0.00,,---,0.00,VWS V14.01,2013-07-06 08:07:00,
2013-07-06 03:08:00,63.0,31.9,24.98,NW,324,0.0,0.0,31,0.00,,---,0.00,VWS V14.01,2013-07-06 08:08:00,
2013-07-06 03:10:00,62.8,31.7,24.98,NW,324,0.0,0.0,31,0.00,,---,0.00,VWS V14.01,2013-07-06 08:10:00,
2013-07-06 03:12:00,62.8,31.7,24.98,NNW,343,2.2,2.2,31,0.00,,---,0.00,VWS V14.01,2013-07-06 08:12:00,
2013-07-06 03:13:00,62.8,31.7,24.98,NNW,343,0.0,0.0,31,0.00,,---,0.00,VWS V14.01,2013-07-06 08:13:00,
2013-07-06 03:14:00,62.8,31.7,24.98,NNW,344,0.0,0.0,31,0.00,,---,0.00,VWS V14.01,2013-07-06 08:14:00,
2013-07-06 03:15:00,62.8,31.7,24.98,NNW,346,2.7,2.7,31,0.00,,---,0.00,VWS V14.01,2013-07-06 08:15:00,
2013-07-06 03:17:00,62.8,32.5,24.98,NNW,345,0.0,2.7,32,0.00,,---,0.00,VWS V14.01,2013-07-06 08:17:00,
2013-07-06 03:18:00,62.8,32.5,24.98,NW,312,0.0,0.0,32,0.00,,---,0.00,VWS V14.01,2013-07-06 08:18:00,
2013-07-06 03:19:00,62.8,32.5,24.98,West,281,0.0,0.0,32,0.00,,---,0.00,VWS V14.01,2013-07-06 08:19:00,
2013-07-06 03:20:00,62.8,32.5,24.98,NW,307,4.0,4.0,32,0.00,,---,0.00,VWS V14.01,2013-07-06 08:20:00,
2013-07-06 03:23:00,62.8,32.5,24.98,NNW,327,4.0,4.0,32,0.00,,---,0.00,VWS V14.01,2013-07-06 08:23:00,
2013-07-06 03:24:00,63.0,33.4,24.98,NW,314,3.1,4.0,33,0.00,,---,0.00,VWS V14.01,2013-07-06 08:24:00,
2013-07-06 03:25:00,63.0,33.4,24.98,NW,314,3.1,3.1,33,0.00,,---,0.00,VWS V14.01,2013-07-06 08:25:00,
2013-07-06 03:28:00,63.0,33.4,24.98,WNW,291,3.1,3.1,33,0.00,,---,0.00,VWS V14.01,2013-07-06 08:28:00,
2013-07-06 03:29:00,63.0,32.7,24.98,NW,305,4.0,4.0,32,0.00,,---,0.00,VWS V14.01,2013-07-06 08:29:00,
2013-07-06 03:30:00,63.0,32.7,24.98,NW,320,2.7,4.0,32,0.00,,---,0.00,VWS V14.01,2013-07-06 08:30:00,
2013-07-06 03:31:00,63.0,32.7,24.98,NW,320,0.0,3.1,32,0.00,,---,0.00,VWS V14.01,2013-07-06 08:31:00,
2013-07-06 03:33:00,63.0,32.7,24.98,NW,320,0.0,0.0,32,0.00,,---,0.00,VWS V14.01,2013-07-06 08:33:00,
2013-07-06 03:34:00,63.0,32.7,24.98,NW,320,0.0,0.0,32,0.00,,---,0.00,VWS V14.01,2013-07-06 08:34:00,
2013-07-06 03:35:00,63.0,32.7,24.98,NNE,12,0.0,0.0,32,0.00,,---,0.00,VWS V14.01,2013-07-06 08:35:00,
2013-07-06 03:36:00,63.0,32.7,24.98,North,357,0.0,0.0,32,0.00,,---,0.00,VWS V14.01,2013-07-06 08:36:00,
2013-07-06 03:38:00,63.1,32.8,24.98,North,357,0.0,0.0,32,0.00,,---,0.00,VWS V14.01,2013-07-06 08:38:00,
2013-07-06 03:39:00,63.1,32.8,24.98,North,357,0.0,0.0,32,0.00,,---,0.00,VWS V14.01,2013-07-06 08:39:00,
2013-07-06 03:40:00,63.1,32.8,24.98,North,357,0.0,0.0,32,0.00,,---,0.00,VWS V14.01,2013-07-06 08:40:00,
2013-07-06 03:41:00,63.1,32.8,24.98,North,357,0.0,0.0,32,0.00,,---,0.00,VWS V14.01,2013-07-06 08:41:00,
2013-07-06 03:43:00,63.1,32.8,24.98,North,353,2.7,2.7,32,0.00,,---,0.00,VWS V14.01,2013-07-06 08:43:00,
2013-07-06 03:45:00,63.1,32.8,24.98,North,353,0.0,0.0,32,0.00,,---,0.00,VWS V14.01,2013-07-06 08:45:00,
2013-07-06 03:46:00,63.3,33.0,24.98,North,353,0.0,0.0,32,0.00,,---,0.00,VWS V14.01,2013-07-06 08:46:00,
2013-07-06 03:48:00,63.3,33.0,24.98,NNE,13,3.1,3.1,32,0.00,,---,0.00,VWS V14.01,2013-07-06 08:48:00,
2013-07-06 03:50:00,63.5,33.1,24.98,NNW,330,4.0,4.0,32,0.00,,---,0.00,VWS V14.01,2013-07-06 08:50:00,
2013-07-06 03:51:00,63.5,33.1,24.98,North,353,0.0,0.0,32,0.00,,---,0.00,VWS V14.01,2013-07-06 08:51:00,
2013-07-06 03:54:00,63.5,33.1,24.98,NNW,342,3.6,5.8,32,0.00,,---,0.00,VWS V14.01,2013-07-06 08:54:00,
2013-07-06 03:55:00,64.2,33.0,24.98,North,353,2.7,2.7,31,0.00,,---,0.00,VWS V14.01,2013-07-06 08:55:00,
2013-07-06 03:56:00,64.2,33.0,24.98,NNE,20,3.6,3.6,31,0.00,,---,0.00,VWS V14.01,2013-07-06 08:56:00,
2013-07-06 03:57:00,64.4,32.3,24.98,ESE,108,2.2,3.6,30,0.00,,---,0.00,VWS V14.01,2013-07-06 08:57:00,
2013-07-06 03:59:00,64.6,32.5,24.98,NNW,333,3.6,3.6,30,0.00,,---,0.00,VWS V14.01,2013-07-06 08:59:00,
2013-07-06 04:00:00,64.6,32.5,24.98,NNW,330,2.2,3.6,30,0.00,,---,0.00,VWS V14.01,2013-07-06 09:00:00,
2013-07-06 04:01:00,64.8,32.6,24.98,NNW,330,2.7,2.7,30,0.00,,---,0.00,VWS V14.01,2013-07-06 09:01:00,
2013-07-06 04:02:00,64.9,32.8,24.98,NNW,334,2.7,2.7,30,0.00,,---,0.00,VWS V14.01,2013-07-06 09:02:00,
2013-07-06 04:04:00,64.9,32.8,24.98,WSW,255,0.0,0.0,30,0.00,,---,0.00,VWS V14.01,2013-07-06 09:04:00,
2013-07-06 04:05:00,64.9,32.8,24.98,WSW,255,0.0,0.0,30,0.00,,---,0.00,VWS V14.01,2013-07-06 09:05:00,
2013-07-06 04:06:00,64.9,32.8,24.98,WSW,255,0.0,0.0,30,0.00,,---,0.00,VWS V14.01,2013-07-06 09:06:00,
2013-07-06 04:07:00,65.7,32.6,24.98,WSW,255,0.0,0.0,29,0.00,,---,0.00,VWS V14.01,2013-07-06 09:07:00,
2013-07-06 04:10:00,65.7,32.6,24.98,West,281,0.0,0.0,29,0.00,,---,0.00,VWS V14.01,2013-07-06 09:10:00,
2013-07-06 04:11:00,65.7,32.6,24.98,NW,325,4.0,4.0,29,0.00,,---,0.00,VWS V14.01,2013-07-06 09:11:00,
2013-07-06 04:12:00,65.7,32.6,24.98,NNW,332,4.9,4.9,29,0.00,,---,0.00,VWS V14.01,2013-07-06 09:12:00,
2013-07-06 04:16:00,65.7,31.7,24.98,SW,222,5.8,5.8,28,0.00,,---,0.00,VWS V14.01,2013-07-06 09:16:00,
2013-07-06 04:17:00,65.8,31.9,24.98,WSW,246,2.7,3.6,28,0.00,,---,0.00,VWS V14.01,2013-07-06 09:17:00,
2013-07-06 04:18:00,65.8,31.9,24.98,WSW,246,2.7,2.7,28,0.00,,---,0.00,VWS V14.01,2013-07-06 09:18:00,
2013-07-06 04:21:00,66.6,31.6,24.98,WNW,297,0.0,2.7,27,0.00,,---,0.00,VWS V14.01,2013-07-06 09:21:00,
2013-07-06 04:23:00,66.6,31.6,24.98,WNW,297,0.0,0.0,27,0.00,,---,0.00,VWS V14.01,2013-07-06 09:23:00,
2013-07-06 04:24:00,66.6,31.6,24.98,West,278,2.7,2.7,27,0.00,,---,0.00,VWS V14.01,2013-07-06 09:24:00,
2013-07-06 04:26:00,66.7,31.7,24.98,WNW,297,0.0,3.1,27,0.00,,---,0.00,VWS V14.01,2013-07-06 09:26:00,
2013-07-06 04:28:00,66.9,31.0,24.98,WNW,302,0.0,0.0,26,0.00,,---,0.00,VWS V14.01,2013-07-06 09:28:00,
2013-07-06 04:29:00,66.9,31.0,24.98,NNW,327,2.7,2.7,26,0.00,,---,0.00,VWS V14.01,2013-07-06 09:29:00,
2013-07-06 04:32:00,67.1,31.1,24.98,NW,308,0.0,0.0,26,0.00,,---,0.00,VWS V14.01,2013-07-06 09:32:00,
2013-07-06 04:33:00,67.1,31.1,24.98,NW,308,2.7,2.7,26,0.00,,---,0.00,VWS V14.01,2013-07-06 09:33:00,
2013-07-06 04:34:00,67.3,31.2,24.98,NW,309,2.7,3.1,26,0.00,,---,0.00,VWS V14.01,2013-07-06 09:34:00,
2013-07-06 04:37:00,67.3,31.2,24.98,West,276,3.1,3.1,26,0.00,,---,0.00,VWS V14.01,2013-07-06 09:37:00,
2013-07-06 04:38:00,67.3,31.2,24.98,WNW,294,0.0,3.1,26,0.00,,---,0.00,VWS V14.01,2013-07-06 09:38:00,
2013-07-06 04:39:00,67.3,31.2,24.98,WNW,294,0.0,0.0,26,0.00,,---,0.00,VWS V14.01,2013-07-06 09:39:00,
2013-07-06 04:42:00,67.3,30.3,24.98,NW,322,2.2,2.2,25,0.00,,---,0.00,VWS V14.01,2013-07-06 09:42:00,
2013-07-06 04:43:00,67.5,30.4,24.98,NNW,340,5.8,5.8,25,0.00,,---,0.00,VWS V14.01,2013-07-06 09:43:00,
2013-07-06 04:44:00,67.5,30.4,24.98,NNW,339,4.0,5.8,25,0.00,,---,0.00,VWS V14.01,2013-07-06 09:44:00,
2013-07-06 04:45:00,67.5,30.4,24.98,NNW,339,4.0,4.0,25,0.00,,---,0.00,VWS V14.01,2013-07-06 09:45:00,
2013-07-06 04:47:00,67.6,30.6,24.98,NNW,348,2.2,2.7,25,0.00,,---,0.00,VWS V14.01,2013-07-06 09:47:00,
2013-07-06 04:48:00,67.6,30.6,24.98,NNW,328,3.1,3.1,25,0.00,,---,0.00,VWS V14.01,2013-07-06 09:48:00,
2013-07-06 04:49:00,67.8,30.7,24.98,NNW,330,4.0,4.0,25,0.00,,---,0.00,VWS V14.01,2013-07-06 09:49:00,
2013-07-06 04:50:00,67.8,30.7,24.98,NW,306,3.6,4.0,25,0.00,,---,0.00,VWS V14.01,2013-07-06 09:50:00,
2013-07-06 04:52:00,67.8,30.7,24.98,WNW,289,4.0,4.9,25,0.00,,---,0.00,VWS V14.01,2013-07-06 09:52:00,
2013-07-06 04:54:00,68.2,30.0,24.98,SW,236,5.8,5.8,24,0.00,,---,0.00,VWS V14.01,2013-07-06 09:54:00,
2013-07-06 04:55:00,68.2,30.0,24.98,SW,234,3.6,5.8,24,0.00,,---,0.00,VWS V14.01,2013-07-06 09:55:00,
2013-07-06 04:57:00,68.2,30.0,24.98,WNW,283,4.5,4.5,24,0.00,,---,0.00,VWS V14.01,2013-07-06 09:57:00,
2013-07-06 04:59:00,68.2,30.0,24.98,West,276,2.2,2.7,24,0.00,,---,0.00,VWS V14.01,2013-07-06 09:59:00,
2013-07-06 05:00:00,68.2,30.0,24.98,West,276,0.0,2.7,24,0.00,,---,0.00,VWS V14.01,2013-07-06 10:00:00,
2013-07-06 05:01:00,68.2,30.0,24.98,West,276,0.0,0.0,24,0.00,,---,0.00,VWS V14.01,2013-07-06 10:01:00,
2013-07-06 05:03:00,68.7,30.5,24.98,West,276,0.0,0.0,24,0.00,,---,0.00,VWS V14.01,2013-07-06 10:03:00,
2013-07-06 05:05:00,68.5,30.4,24.98,West,276,0.0,0.0,24,0.00,,---,0.00,VWS V14.01,2013-07-06 10:05:00,
2013-07-06 05:06:00,68.4,30.2,24.98,West,276,0.0,0.0,24,0.00,,---,0.00,VWS V14.01,2013-07-06 10:06:00,
2013-07-06 05:08:00,68.2,30.0,24.98,West,276,0.0,0.0,24,0.00,,---,0.00,VWS V14.01,2013-07-06 10:08:00,
2013-07-06 05:10:00,68.2,30.0,24.98,West,276,0.0,0.0,24,0.00,,---,0.00,VWS V14.01,2013-07-06 10:10:00,
2013-07-06 05:11:00,68.2,30.0,24.98,West,276,0.0,0.0,24,0.00,,---,0.00,VWS V14.01,2013-07-06 10:11:00,
2013-07-06 05:14:00,67.8,29.7,24.98,West,278,0.0,0.0,24,0.00,,---,0.00,VWS V14.01,2013-07-06 10:14:00,
2013-07-06 05:15:00,67.6,29.6,24.98,West,278,0.0,0.0,24,0.00,,---,0.00,VWS V14.01,2013-07-06 10:15:00,
2013-07-06 05:16:00,67.6,29.6,24.98,West,278,0.0,0.0,24,0.00,,---,0.00,VWS V14.01,2013-07-06 10:16:00,
2013-07-06 05:19:00,67.5,29.4,24.98,West,278,0.0,0.0,24,0.00,,---,0.00,VWS V14.01,2013-07-06 10:19:00,
2013-07-06 05:20:00,67.3,29.3,24.98,West,278,0.0,0.0,24,0.00,,---,0.00,VWS V14.01,2013-07-06 10:20:00,
2013-07-06 05:21:00,67.3,29.3,24.98,West,278,0.0,0.0,24,0.00,,---,0.00,VWS V14.01,2013-07-06 10:21:00,
2013-07-06 05:24:00,67.3,29.3,24.98,West,278,0.0,0.0,24,0.00,,---,0.00,VWS V14.01,2013-07-06 10:24:00,
2013-07-06 05:25:00,66.9,30.0,24.98,West,279,0.0,0.0,25,0.00,,---,0.00,VWS V14.01,2013-07-06 10:25:00,
2013-07-06 05:26:00,66.9,30.0,24.98,West,278,0.0,0.0,25,0.00,,---,0.00,VWS V14.01,2013-07-06 10:26:00,
2013-07-06 05:27:00,66.9,30.0,24.98,West,279,0.0,0.0,25,0.00,,---,0.00,VWS V14.01,2013-07-06 10:27:00,
2013-07-06 05:29:00,66.9,30.0,24.98,West,279,0.0,0.0,25,0.00,,---,0.00,VWS V14.01,2013-07-06 10:29:00,
2013-07-06 05:30:00,66.9,30.0,24.98,West,279,0.0,0.0,25,0.00,,---,0.00,VWS V14.01,2013-07-06 10:30:00,
2013-07-06 05:31:00,66.9,30.0,24.98,West,279,0.0,0.0,25,0.00,,---,0.00,VWS V14.01,2013-07-06 10:31:00,
2013-07-06 05:32:00,66.9,30.0,24.98,West,279,0.0,0.0,25,0.00,,---,0.00,VWS V14.01,2013-07-06 10:32:00,
2013-07-06 05:34:00,66.9,30.0,24.98,West,279,0.0,0.0,25,0.00,,---,0.00,VWS V14.01,2013-07-06 10:34:00,
2013-07-06 05:36:00,66.7,29.8,24.98,West,279,0.0,0.0,25,0.00,,---,0.00,VWS V14.01,2013-07-06 10:36:00,
2013-07-06 05:37:00,66.7,29.8,24.98,West,279,0.0,0.0,25,0.00,,---,0.00,VWS V14.01,2013-07-06 10:37:00,
2013-07-06 05:39:00,66.7,29.8,24.98,NW,306,5.4,5.4,25,0.00,,---,0.00,VWS V14.01,2013-07-06 10:39:00,
2013-07-06 05:41:00,66.7,29.8,24.98,NW,309,3.1,3.6,25,0.00,,---,0.00,VWS V14.01,2013-07-06 10:41:00,
2013-07-06 05:42:00,66.7,29.8,24.98,NW,311,2.7,3.1,25,0.00,,---,0.00,VWS V14.01,2013-07-06 10:42:00,
2013-07-06 05:44:00,66.7,29.8,24.98,West,279,0.0,2.2,25,0.00,,---,0.00,VWS V14.01,2013-07-06 10:44:00,
2013-07-06 05:46:00,66.6,29.7,24.98,West,279,0.0,0.0,25,0.00,,---,0.00,VWS V14.01,2013-07-06 10:46:00,
2013-07-06 05:47:00,66.6,29.7,24.98,West,279,0.0,0.0,25,0.00,,---,0.00,VWS V14.01,2013-07-06 10:47:00,
2013-07-06 05:48:00,66.6,29.7,24.98,West,279,0.0,0.0,25,0.00,,---,0.00,VWS V14.01,2013-07-06 10:48:00,
2013-07-06 05:50:00,66.6,29.7,24.98,West,279,0.0,0.0,25,0.00,,---,0.00,VWS V14.01,2013-07-06 10:50:00,
2013-07-06 05:51:00,66.6,29.7,24.98,West,279,0.0,0.0,25,0.00,,---,0.00,VWS V14.01,2013-07-06 10:51:00,
2013-07-06 05:52:00,66.2,29.4,24.98,West,279,0.0,0.0,25,0.00,,---,0.00,VWS V14.01,2013-07-06 10:52:00,
2013-07-06 05:53:00,66.0,29.2,24.98,West,279,0.0,0.0,25,0.00,,---,0.00,VWS V14.01,2013-07-06 10:53:00,
2013-07-06 05:55:00,66.0,29.2,24.98,WNW,299,3.6,3.6,25,0.00,,---,0.00,VWS V14.01,2013-07-06 10:55:00,
2013-07-06 05:56:00,66.0,29.2,24.98,NW,320,4.0,4.0,25,0.00,,---,0.00,VWS V14.01,2013-07-06 10:56:00,
2013-07-06 05:57:00,66.0,29.2,24.98,NW,320,4.0,4.0,25,0.00,,---,0.00,VWS V14.01,2013-07-06 10:57:00,
2013-07-06 05:58:00,66.0,30.2,24.98,NW,306,3.1,3.1,26,0.00,,---,0.00,VWS V14.01,2013-07-06 10:58:00,
2013-07-06 06:01:00,66.0,30.2,24.98,NW,311,2.7,2.7,26,0.00,,---,0.00,VWS V14.01,2013-07-06 11:01:00,
2013-07-06 06:02:00,66.0,30.2,24.98,NW,320,3.1,4.0,26,0.00,,---,0.00,VWS V14.01,2013-07-06 11:02:00,
2013-07-06 06:05:00,66.4,29.5,24.98,NW,324,4.0,4.9,25,0.00,,---,0.00,VWS V14.01,2013-07-06 11:05:00,
2013-07-06 06:06:00,66.4,29.5,24.98,NW,324,4.0,4.9,25,0.00,,---,0.00,VWS V14.01,2013-07-06 11:06:00,
2013-07-06 06:07:00,66.4,29.5,24.98,NW,315,2.2,2.2,25,0.00,,---,0.00,VWS V14.01,2013-07-06 11:07:00,
2013-07-06 06:11:00,66.4,29.5,24.98,NW,315,0.0,0.0,25,0.00,,---,0.00,VWS V14.01,2013-07-06 11:11:00,
2013-07-06 06:12:00,66.4,29.5,24.98,NW,315,0.0,0.0,25,0.00,,---,0.00,VWS V14.01,2013-07-06 11:12:00,
2013-07-06 06:16:00,66.2,29.4,24.98,NW,315,0.0,0.0,25,0.00,,---,0.00,VWS V14.01,2013-07-06 11:16:00,
2013-07-06 06:17:00,66.2,29.4,24.98,NW,315,0.0,0.0,25,0.00,,---,0.00,VWS V14.01,2013-07-06 11:17:00,
2013-07-06 06:18:00,66.0,29.2,24.98,NW,315,0.0,0.0,25,0.00,,---,0.00,VWS V14.01,2013-07-06 11:18:00,
2013-07-06 06:22:00,66.0,30.2,24.98,NW,315,0.0,0.0,26,0.00,,---,0.00,VWS V14.01,2013-07-06 11:22:00,
2013-07-06 06:23:00,65.8,30.0,24.98,NW,315,0.0,0.0,26,0.00,,---,0.00,VWS V14.01,2013-07-06 11:23:00,
2013-07-06 06:27:00,65.8,30.0,24.98,North,357,0.0,0.0,26,0.00,,---,0.00,VWS V14.01,2013-07-06 11:27:00,
2013-07-06 06:28:00,65.8,30.0,24.98,North,357,0.0,0.0,26,0.00,,---,0.00,VWS V14.01,2013-07-06 11:28:00,
2013-07-06 06:32:00,65.8,30.0,24.98,North,357,0.0,0.0,26,0.00,,---,0.00,VWS V14.01,2013-07-06 11:32:00,
2013-07-06 06:33:00,65.8,30.0,24.98,North,357,0.0,0.0,26,0.00,,---,0.00,VWS V14.01,2013-07-06 11:33:00,
2013-07-06 06:34:00,65.8,30.0,24.98,North,357,0.0,0.0,26,0.00,,---,0.00,VWS V14.01,2013-07-06 11:34:00,
2013-07-06 06:37:00,65.8,30.0,24.98,North,2,0.0,0.0,26,0.00,,---,0.00,VWS V14.01,2013-07-06 11:37:00,
2013-07-06 06:38:00,65.8,30.0,24.98,North,2,0.0,0.0,26,0.00,,---,0.00,VWS V14.01,2013-07-06 11:38:00,
2013-07-06 06:39:00,65.7,29.9,24.98,North,2,0.0,0.0,26,0.00,,---,0.00,VWS V14.01,2013-07-06 11:39:00,
2013-07-06 06:42:00,65.5,29.7,24.98,North,2,0.0,0.0,26,0.00,,---,0.00,VWS V14.01,2013-07-06 11:42:00,
2013-07-06 06:43:00,65.5,29.7,24.98,North,2,0.0,0.0,26,0.00,,---,0.00,VWS V14.01,2013-07-06 11:43:00,
2013-07-06 06:44:00,65.5,29.7,24.98,North,2,0.0,0.0,26,0.00,,---,0.00,VWS V14.01,2013-07-06 11:44:00,
2013-07-06 06:47:00,65.5,29.7,24.98,North,0,0.0,0.0,26,0.00,,---,0.00,VWS V14.01,2013-07-06 11:47:00,
2013-07-06 06:48:00,65.5,29.7,24.98,North,0,0.0,0.0,26,0.00,,---,0.00,VWS V14.01,2013-07-06 11:48:00,
2013-07-06 06:49:00,65.5,29.7,24.98,North,0,0.0,0.0,26,0.00,,---,0.00,VWS V14.01,2013-07-06 11:49:00,
2013-07-06 06:52:00,65.3,29.6,24.98,North,0,0.0,0.0,26,0.00,,---,0.00,VWS V14.01,2013-07-06 11:52:00,
2013-07-06 06:54:00,65.3,29.6,24.98,North,0,0.0,0.0,26,0.00,,---,0.00,VWS V14.01,2013-07-06 11:54:00,
2013-07-06 06:55:00,65.3,29.6,24.98,North,0,0.0,0.0,26,0.00,,---,0.00,VWS V14.01,2013-07-06 11:55:00,
2013-07-06 06:58:00,65.3,29.6,24.98,North,0,0.0,0.0,26,0.00,,---,0.00,VWS V14.01,2013-07-06 11:58:00,
2013-07-06 06:59:00,65.3,29.6,24.98,North,0,0.0,0.0,26,0.00,,---,0.00,VWS V14.01,2013-07-06 11:59:00,
2013-07-06 07:00:00,65.3,29.6,24.98,North,0,0.0,0.0,26,0.00,,---,0.00,VWS V14.01,2013-07-06 12:00:00,
2013-07-06 07:01:00,65.3,29.6,24.98,North,0,0.0,0.0,26,0.00,,---,0.00,VWS V14.01,2013-07-06 12:01:00,
2013-07-06 07:05:00,65.1,30.3,24.98,North,0,0.0,0.0,27,0.00,,---,0.00,VWS V14.01,2013-07-06 12:05:00,
2013-07-06 07:07:00,65.1,30.3,24.98,North,0,0.0,0.0,27,0.00,,---,0.00,VWS V14.01,2013-07-06 12:07:00,
2013-07-06 07:10:00,64.9,30.2,24.98,North,0,0.0,0.0,27,0.00,,---,0.00,VWS V14.01,2013-07-06 12:10:00,
2013-07-06 07:12:00,64.9,30.2,24.98,North,0,0.0,0.0,27,0.00,,---,0.00,VWS V14.01,2013-07-06 12:12:00,
2013-07-06 07:13:00,64.9,30.2,24.98,North,0,0.0,0.0,27,0.00,,---,0.00,VWS V14.01,2013-07-06 12:13:00,
2013-07-06 07:16:00,65.1,30.3,24.98,North,0,0.0,0.0,27,0.00,,---,0.00,VWS V14.01,2013-07-06 12:16:00,
2013-07-06 07:17:00,65.1,30.3,24.98,North,0,0.0,0.0,27,0.00,,---,0.00,VWS V14.01,2013-07-06 12:17:00,
2013-07-06 07:18:00,65.1,30.3,24.98,North,0,0.0,0.0,27,0.00,,---,0.00,VWS V14.01,2013-07-06 12:18:00,
2013-07-06 07:19:00,65.1,30.3,24.98,North,0,0.0,0.0,27,0.00,,---,0.00,VWS V14.01,2013-07-06 12:19:00,
2013-07-06 07:21:00,65.7,30.8,24.98,North,0,0.0,0.0,27,0.00,,---,0.00,VWS V14.01,2013-07-06 12:21:00,
2013-07-06 07:22:00,65.7,30.8,24.98,North,0,0.0,0.0,27,0.00,,---,0.00,VWS V14.01,2013-07-06 12:22:00,
2013-07-06 07:23:00,65.7,30.8,24.98,North,0,0.0,0.0,27,0.00,,---,0.00,VWS V14.01,2013-07-06 12:23:00,
2013-07-06 07:24:00,65.8,31.0,24.98,North,0,0.0,0.0,27,0.00,,---,0.00,VWS V14.01,2013-07-06 12:24:00,
2013-07-06 07:27:00,66.0,30.2,24.98,North,0,0.0,0.0,26,0.00,,---,0.00,VWS V14.01,2013-07-06 12:27:00,
2013-07-06 07:28:00,66.2,30.3,24.98,North,0,0.0,0.0,26,0.00,,---,0.00,VWS V14.01,2013-07-06 12:28:00,
2013-07-06 07:30:00,66.2,30.3,24.98,North,0,0.0,0.0,26,0.00,,---,0.00,VWS V14.01,2013-07-06 12:30:00,
2013-07-06 07:33:00,66.4,30.5,24.98,North,0,0.0,0.0,26,0.00,,---,0.00,VWS V14.01,2013-07-06 12:33:00,
2013-07-06 07:37:00,66.4,30.5,24.98,North,0,0.0,0.0,26,0.00,,---,0.00,VWS V14.01,2013-07-06 12:37:00,
2013-07-06 07:38:00,66.4,30.5,24.98,North,0,0.0,0.0,26,0.00,,---,0.00,VWS V14.01,2013-07-06 12:38:00,
2013-07-06 07:39:00,66.6,30.6,24.98,North,0,0.0,0.0,26,0.00,,---,0.00,VWS V14.01,2013-07-06 12:39:00,
2013-07-06 07:41:00,66.6,30.6,24.98,North,0,0.0,0.0,26,0.00,,---,0.00,VWS V14.01,2013-07-06 12:41:00,
2013-07-06 07:42:00,66.7,29.8,24.98,North,0,0.0,0.0,25,0.00,,---,0.00,VWS V14.01,2013-07-06 12:42:00,
2013-07-06 07:43:00,66.7,29.8,24.98,WNW,288,3.6,3.6,25,0.00,,---,0.00,VWS V14.01,2013-07-06 12:43:00,
2013-07-06 07:44:00,66.7,29.8,24.98,WNW,288,0.0,0.0,25,0.00,,---,0.00,VWS V14.01,2013-07-06 12:44:00,
2013-07-06 07:47:00,67.1,30.1,24.98,WNW,288,0.0,0.0,25,0.00,,---,0.00,VWS V14.01,2013-07-06 12:47:00,
2013-07-06 07:48:00,67.1,30.1,24.98,WNW,288,0.0,0.0,25,0.00,,---,0.00,VWS V14.01,2013-07-06 12:48:00,
2013-07-06 07:49:00,67.3,30.3,24.98,WNW,288,0.0,0.0,25,0.00,,---,0.00,VWS V14.01,2013-07-06 12:49:00,
2013-07-06 07:52:00,67.3,30.3,24.98,NE,44,0.0,0.0,25,0.00,,---,0.00,VWS V14.01,2013-07-06 12:52:00,
2013-07-06 07:53:00,67.5,30.4,24.98,SE,130,0.0,0.0,25,0.00,,---,0.00,VWS V14.01,2013-07-06 12:53:00,
2013-07-06 07:55:00,67.5,30.4,24.98,SE,130,0.0,0.0,25,0.00,,---,0.00,VWS V14.01,2013-07-06 12:55:00,
2013-07-06 07:57:00,67.6,30.6,24.98,SE,130,0.0,0.0,25,0.00,,---,0.00,VWS V14.01,2013-07-06 12:57:00,
2013-07-06 07:58:00,67.6,30.6,24.98,SE,130,0.0,0.0,25,0.00,,---,0.00,VWS V14.01,2013-07-06 12:58:00,
2013-07-06 08:00:00,67.8,30.7,24.98,SE,130,0.0,0.0,25,0.00,,---,0.00,VWS V14.01,2013-07-06 13:00:00,
2013-07-06 08:02:00,68.0,29.9,24.98,SE,130,0.0,0.0,24,0.00,,---,0.00,VWS V14.01,2013-07-06 13:02:00,
2013-07-06 08:04:00,68.0,29.9,24.98,SE,130,0.0,0.0,24,0.00,,---,0.00,VWS V14.01,2013-07-06 13:04:00,
2013-07-06 08:06:00,68.0,29.9,24.98,SE,130,0.0,0.0,24,0.00,,---,0.00,VWS V14.01,2013-07-06 13:06:00,
2013-07-06 08:08:00,68.2,30.0,24.98,SE,130,0.0,0.0,24,0.00,,---,0.00,VWS V14.01,2013-07-06 13:08:00,
2013-07-06 08:09:00,68.2,30.0,24.98,SW,231,0.0,0.0,24,0.00,,---,0.00,VWS V14.01,2013-07-06 13:09:00,
2013-07-06 08:14:00,68.7,30.5,24.98,SW,232,4.0,4.0,24,0.00,,---,0.00,VWS V14.01,2013-07-06 13:14:00,
2013-07-06 08:15:00,68.7,30.5,24.98,WSW,246,7.6,7.6,24,0.00,,---,0.00,VWS V14.01,2013-07-06 13:15:00,
2013-07-06 08:16:00,68.9,30.6,24.98,West,260,5.8,7.6,24,0.00,,---,0.00,VWS V14.01,2013-07-06 13:16:00,
2013-07-06 08:18:00,69.1,29.8,24.98,WSW,258,5.4,5.4,23,0.00,,---,0.00,VWS V14.01,2013-07-06 13:18:00,
2013-07-06 08:21:00,69.6,30.2,24.98,West,266,5.8,8.1,23,0.00,,---,0.00,VWS V14.01,2013-07-06 13:21:00,
2013-07-06 08:22:00,69.6,30.2,24.98,SW,234,10.1,10.1,23,0.00,,---,0.00,VWS V14.01,2013-07-06 13:22:00,
2013-07-06 08:23:00,69.6,30.2,24.98,WNW,285,6.3,8.3,23,0.00,,---,0.00,VWS V14.01,2013-07-06 13:23:00,
2013-07-06 08:26:00,69.6,30.2,24.98,SW,234,6.3,6.3,23,0.00,,---,0.00,VWS V14.01,2013-07-06 13:26:00,
2013-07-06 08:27:00,69.6,30.2,24.98,SW,236,4.9,6.3,23,0.00,,---,0.00,VWS V14.01,2013-07-06 13:27:00,
2013-07-06 08:28:00,70.5,31.0,24.98,WSW,258,4.9,5.8,23,0.00,,---,0.00,VWS V14.01,2013-07-06 13:28:00,
2013-07-06 08:32:00,71.1,31.4,25.01,West,260,4.5,4.5,23,0.00,,---,0.00,VWS V14.01,2013-07-06 13:32:00,
2013-07-06 08:33:00,71.1,31.4,25.01,WSW,248,2.7,4.5,23,0.00,,---,0.00,VWS V14.01,2013-07-06 13:33:00,
2013-07-06 08:34:00,71.1,31.4,25.01,WSW,253,5.8,5.8,23,0.00,,---,0.00,VWS V14.01,2013-07-06 13:34:00,
2013-07-06 08:37:00,72.0,31.1,25.01,WSW,238,4.0,4.0,22,0.00,,---,0.00,VWS V14.01,2013-07-06 13:37:00,
2013-07-06 08:38:00,72.0,31.1,25.01,West,259,5.8,6.3,22,0.00,,---,0.00,VWS V14.01,2013-07-06 13:38:00,
2013-07-06 08:39:00,72.3,31.4,25.01,WSW,250,4.9,7.6,22,0.00,,---,0.00,VWS V14.01,2013-07-06 13:39:00,
2013-07-06 08:42:00,72.9,31.8,25.01,WNW,291,8.1,8.1,22,0.00,,---,0.00,VWS V14.01,2013-07-06 13:42:00,
2013-07-06 08:43:00,72.9,31.8,25.01,West,264,7.6,8.1,22,0.00,,---,0.00,VWS V14.01,2013-07-06 13:43:00,
2013-07-06 08:45:00,72.9,31.8,25.01,WNW,282,5.4,5.4,22,0.00,,---,0.00,VWS V14.01,2013-07-06 13:45:00,
2013-07-06 08:47:00,73.4,31.1,25.01,NNW,328,5.4,5.8,21,0.00,,---,0.00,VWS V14.01,2013-07-06 13:47:00,
2013-07-06 08:48:00,73.4,31.1,25.01,NW,326,4.0,5.4,21,0.00,,---,0.00,VWS V14.01,2013-07-06 13:48:00,
2013-07-06 08:50:00,73.6,31.3,25.01,NNW,330,3.6,3.6,21,0.00,,---,0.00,VWS V14.01,2013-07-06 13:50:00,
2013-07-06 08:53:00,73.6,31.3,25.01,NW,320,2.7,2.7,21,0.00,,---,0.00,VWS V14.01,2013-07-06 13:53:00,
2013-07-06 08:55:00,73.6,31.3,25.01,WNW,302,3.6,4.0,21,0.00,,---,0.00,VWS V14.01,2013-07-06 13:55:00,
2013-07-06 08:58:00,75.4,32.8,25.01,WNW,286,0.0,2.7,21,0.00,,---,0.00,VWS V14.01,2013-07-06 13:58:00,
2013-07-06 08:59:00,75.9,33.2,25.01,WNW,286,0.0,0.0,21,0.00,,---,0.00,VWS V14.01,2013-07-06 13:59:00,
2013-07-06 09:00:00,76.3,33.5,25.01,WNW,286,0.0,0.0,21,0.00,,---,0.00,VWS V14.01,2013-07-06 14:00:00,
2013-07-06 09:01:00,76.5,33.7,25.01,WNW,286,0.0,0.0,21,0.00,,---,0.00,VWS V14.01,2013-07-06 14:01:00,
2013-07-06 09:03:00,76.8,32.8,25.01,NNW,335,3.1,4.0,20,0.00,,---,0.00,VWS V14.01,2013-07-06 14:03:00,
2013-07-06 09:04:00,77.2,33.0,25.01,North,350,4.0,4.0,20,0.00,,---,0.00,VWS V14.01,2013-07-06 14:04:00,
2013-07-06 09:05:00,77.4,33.2,25.01,NNE,17,0.0,4.0,20,0.00,,---,0.00,VWS V14.01,2013-07-06 14:05:00,
2013-07-06 09:07:00,77.4,33.2,25.01,NNE,14,0.0,2.2,20,0.00,,---,0.00,VWS V14.01,2013-07-06 14:07:00,
2013-07-06 09:09:00,77.4,33.2,25.01,NNE,19,0.0,0.0,20,0.00,,---,0.00,VWS V14.01,2013-07-06 14:09:00,
2013-07-06 09:10:00,77.4,33.2,25.01,NNW,343,2.7,3.6,20,0.00,,---,0.00,VWS V14.01,2013-07-06 14:10:00,
2013-07-06 09:11:00,77.4,33.2,25.01,NW,315,4.0,4.0,20,0.00,,---,0.00,VWS V14.01,2013-07-06 14:11:00,
2013-07-06 09:12:00,78.3,33.9,25.01,NW,323,3.6,4.9,20,0.00,,---,0.00,VWS V14.01,2013-07-06 14:12:00,
2013-07-06 09:14:00,78.6,34.2,25.01,NW,318,2.2,6.3,20,0.00,,---,0.00,VWS V14.01,2013-07-06 14:14:00,
2013-07-06 09:15:00,78.6,34.2,25.01,NW,318,2.2,3.1,20,0.00,,---,0.00,VWS V14.01,2013-07-06 14:15:00,
2013-07-06 09:16:00,78.6,34.2,25.01,NNW,339,0.0,3.1,20,0.00,,---,0.00,VWS V14.01,2013-07-06 14:16:00,
2013-07-06 09:17:00,78.6,34.2,25.01,NNW,335,4.0,4.0,20,0.00,,---,0.00,VWS V14.01,2013-07-06 14:17:00,
2013-07-06 09:18:00,78.8,34.4,25.01,NNW,345,3.6,4.9,20,0.00,,---,0.00,VWS V14.01,2013-07-06 14:18:00,
2013-07-06 09:20:00,78.8,34.4,25.01,NNW,339,3.1,3.6,20,0.00,,---,0.00,VWS V14.01,2013-07-06 14:20:00,
2013-07-06 09:21:00,78.8,30.4,25.01,North,349,3.6,3.6,17,0.00,,---,0.00,VWS V14.01,2013-07-06 14:21:00,
2013-07-06 09:24:00,79.0,30.5,25.01,North,0,2.7,2.7,17,0.00,,---,0.00,VWS V14.01,2013-07-06 14:24:00,
2013-07-06 09:25:00,79.2,30.6,25.01,WSW,238,5.4,5.4,17,0.00,,---,0.00,VWS V14.01,2013-07-06 14:25:00,
2013-07-06 09:26:00,79.2,30.6,25.01,West,267,4.0,5.4,17,0.00,,---,0.00,VWS V14.01,2013-07-06 14:26:00,
2013-07-06 09:29:00,79.5,30.9,25.01,WSW,241,7.6,7.6,17,0.00,,---,0.00,VWS V14.01,2013-07-06 14:29:00,
2013-07-06 09:30:00,79.5,30.9,25.01,WSW,243,8.1,8.7,17,0.00,,---,0.00,VWS V14.01,2013-07-06 14:30:00,
2013-07-06 09:31:00,79.3,30.8,25.01,SW,230,6.3,6.3,17,0.00,,---,0.00,VWS V14.01,2013-07-06 14:31:00,
2013-07-06 09:33:00,79.3,30.8,25.01,SW,218,4.9,7.6,17,0.00,,---,0.00,VWS V14.01,2013-07-06 14:33:00,
2013-07-06 09:34:00,79.5,30.9,25.01,WSW,249,5.8,6.7,17,0.00,,---,0.00,VWS V14.01,2013-07-06 14:34:00,
2013-07-06 09:36:00,79.5,30.9,25.01,SW,220,3.6,5.4,17,0.00,,---,0.00,VWS V14.01,2013-07-06 14:36:00,
2013-07-06 09:37:00,79.9,31.2,25.01,WSW,252,4.0,5.4,17,0.00,,---,0.00,VWS V14.01,2013-07-06 14:37:00,
2013-07-06 09:38:00,79.9,31.2,25.01,WSW,238,5.8,5.8,17,0.00,,---,0.00,VWS V14.01,2013-07-06 14:38:00,
2013-07-06 09:39:00,79.9,31.2,25.01,WSW,249,5.8,8.1,17,0.00,,---,0.00,VWS V14.01,2013-07-06 14:39:00,
2013-07-06 09:43:00,80.2,31.5,25.01,WSW,239,8.1,8.1,17,0.00,,---,0.00,VWS V14.01,2013-07-06 14:43:00,
2013-07-06 09:44:00,80.2,31.5,25.01,WSW,248,8.1,8.1,17,0.00,,---,0.00,VWS V14.01,2013-07-06 14:44:00,
2013-07-06 09:48:00,81.0,32.1,25.01,WSW,244,6.3,6.3,17,0.00,,---,0.00,VWS V14.01,2013-07-06 14:48:00,
2013-07-06 09:49:00,81.1,32.2,25.01,SSW,212,5.4,6.3,17,0.00,,---,0.00,VWS V14.01,2013-07-06 14:49:00,
2013-07-06 09:50:00,81.1,32.2,25.01,SW,236,9.2,9.6,17,0.00,,---,0.00,VWS V14.01,2013-07-06 14:50:00,
2013-07-06 09:54:00,81.3,32.4,25.01,SW,236,8.3,8.3,17,0.00,,---,0.00,VWS V14.01,2013-07-06 14:54:00,
2013-07-06 09:55:00,81.3,32.4,25.01,SSW,203,9.6,9.6,17,0.00,,---,0.00,VWS V14.01,2013-07-06 14:55:00,
2013-07-06 09:58:00,81.1,32.2,25.01,WSW,237,6.3,6.3,17,0.00,,---,0.00,VWS V14.01,2013-07-06 14:58:00,
2013-07-06 10:00:00,81.1,32.2,25.01,SW,235,8.1,10.5,17,0.00,,---,0.00,VWS V14.01,2013-07-06 15:00:00,
2013-07-06 10:01:00,81.1,32.2,25.01,WSW,251,10.1,10.1,17,0.00,,---,0.00,VWS V14.01,2013-07-06 15:01:00,
2013-07-06 10:02:00,81.1,32.2,25.01,WSW,248,8.3,10.1,17,0.00,,---,0.00,VWS V14.01,2013-07-06 15:02:00,
2013-07-06 10:03:00,81.1,32.2,25.01,West,267,8.3,8.3,17,0.00,,---,0.00,VWS V14.01,2013-07-06 15:03:00,
2013-07-06 10:06:00,81.1,32.2,25.01,WSW,244,5.8,8.1,17,0.00,,---,0.00,VWS V14.01,2013-07-06 15:06:00,
2013-07-06 10:07:00,81.1,32.2,25.01,SSW,208,6.3,6.3,17,0.00,,---,0.00,VWS V14.01,2013-07-06 15:07:00,
2013-07-06 10:09:00,81.1,32.2,25.01,SW,229,5.8,5.8,17,0.00,,---,0.00,VWS V14.01,2013-07-06 15:09:00,
2013-07-06 10:11:00,81.7,32.7,25.01,WNW,284,6.3,8.1,17,0.00,,---,0.00,VWS V14.01,2013-07-06 15:11:00,
2013-07-06 10:12:00,81.7,32.7,25.01,WSW,241,7.6,7.6,17,0.00,,---,0.00,VWS V14.01,2013-07-06 15:12:00,
2013-07-06 10:14:00,82.0,33.0,25.01,SW,225,8.1,8.1,17,0.00,,---,0.00,VWS V14.01,2013-07-06 15:14:00,
2013-07-06 10:16:00,82.4,31.8,25.01,WSW,239,7.6,7.6,16,0.00,,---,0.00,VWS V14.01,2013-07-06 15:16:00,
2013-07-06 10:17:00,82.4,31.8,25.01,West,264,5.8,8.3,16,0.00,,---,0.00,VWS V14.01,2013-07-06 15:17:00,
2013-07-06 10:18:00,82.4,31.8,25.01,SW,226,7.6,8.7,16,0.00,,---,0.00,VWS V14.01,2013-07-06 15:18:00,
2013-07-06 10:19:00,82.4,31.8,25.01,SSW,205,8.1,8.1,16,0.00,,---,0.00,VWS V14.01,2013-07-06 15:19:00,
2013-07-06 10:21:00,82.4,31.8,25.01,SSW,202,7.6,7.6,16,0.00,,---,0.00,VWS V14.01,2013-07-06 15:21:00,
2013-07-06 10:22:00,82.4,31.8,25.01,SSW,210,7.6,7.6,16,0.00,,---,0.00,VWS V14.01,2013-07-06 15:22:00,
2013-07-06 10:23:00,82.4,31.8,25.01,SW,216,10.1,10.1,16,0.00,,---,0.00,VWS V14.01,2013-07-06 15:23:00,
2013-07-06 10:24:00,82.4,31.8,25.01,WSW,255,8.7,10.1,16,0.00,,---,0.00,VWS V14.01,2013-07-06 15:24:00,
2013-07-06 10:27:00,82.2,33.1,25.01,SW,232,10.1,10.1,17,0.00,,---,0.00,VWS V14.01,2013-07-06 15:27:00,
2013-07-06 10:28:00,82.2,33.1,25.01,WSW,240,8.7,10.5,17,0.00,,---,0.00,VWS V14.01,2013-07-06 15:28:00,
2013-07-06 10:29:00,82.2,33.1,25.01,SW,236,8.1,10.1,17,0.00,,---,0.00,VWS V14.01,2013-07-06 15:29:00,
2013-07-06 10:32:00,82.2,33.1,25.01,WSW,243,8.3,8.3,17,0.00,,---,0.00,VWS V14.01,2013-07-06 15:32:00,
2013-07-06 10:33:00,82.4,31.8,25.01,SSW,205,8.3,8.3,16,0.00,,---,0.00,VWS V14.01,2013-07-06 15:33:00,
2013-07-06 10:34:00,82.4,31.8,25.01,WSW,240,11.0,11.0,16,0.00,,---,0.00,VWS V14.01,2013-07-06 15:34:00,
2013-07-06 10:37:00,82.6,31.9,25.01,WSW,248,11.0,11.0,16,0.00,,---,0.00,VWS V14.01,2013-07-06 15:37:00,
2013-07-06 10:38:00,82.8,32.0,25.01,SW,226,7.2,11.0,16,0.00,,---,0.00,VWS V14.01,2013-07-06 15:38:00,
2013-07-06 10:39:00,82.8,32.0,25.01,SW,236,7.6,7.6,16,0.00,,---,0.00,VWS V14.01,2013-07-06 15:39:00,
2013-07-06 10:41:00,82.8,32.0,25.01,SW,232,8.7,8.7,16,0.00,,---,0.00,VWS V14.01,2013-07-06 15:41:00,
2013-07-06 10:43:00,82.8,32.0,25.01,SW,227,8.1,9.6,16,0.00,,---,0.00,VWS V14.01,2013-07-06 15:43:00,
2013-07-06 10:44:00,82.9,32.2,25.01,SSW,211,6.3,6.3,16,0.00,,---,0.00,VWS V14.01,2013-07-06 15:44:00,
2013-07-06 10:45:00,82.9,32.2,25.01,WSW,249,8.1,8.3,16,0.00,,---,0.00,VWS V14.01,2013-07-06 15:45:00,
2013-07-06 10:47:00,83.1,32.3,25.01,SW,216,8.1,8.1,16,0.00,,---,0.00,VWS V14.01,2013-07-06 15:47:00,
2013-07-06 10:48:00,83.1,32.3,25.01,SW,216,6.3,8.1,16,0.00,,---,0.00,VWS V14.01,2013-07-06 15:48:00,
2013-07-06 10:49:00,83.1,32.3,25.01,SW,214,8.7,8.7,16,0.00,,---,0.00,VWS V14.01,2013-07-06 15:49:00,
2013-07-06 10:50:00,83.1,32.3,25.01,SW,214,7.6,8.7,16,0.00,,---,0.00,VWS V14.01,2013-07-06 15:50:00,
2013-07-06 10:52:00,83.7,32.8,25.01,West,261,5.4,5.4,16,0.00,,---,0.00,VWS V14.01,2013-07-06 15:52:00,
2013-07-06 10:53:00,83.7,32.8,25.01,West,268,10.1,10.1,16,0.00,,---,0.00,VWS V14.01,2013-07-06 15:53:00,
2013-07-06 10:54:00,83.7,32.8,25.01,WSW,241,7.6,8.7,16,0.00,,---,0.00,VWS V14.01,2013-07-06 15:54:00,
2013-07-06 10:55:00,83.8,32.9,25.01,SW,236,7.6,7.6,16,0.00,,---,0.00,VWS V14.01,2013-07-06 15:55:00,
2013-07-06 10:57:00,84.4,33.3,25.01,WSW,246,8.1,8.1,16,0.00,,---,0.00,VWS V14.01,2013-07-06 15:57:00,
2013-07-06 10:58:00,84.4,33.3,25.01,SSW,205,8.7,8.7,16,0.00,,---,0.00,VWS V14.01,2013-07-06 15:58:00,
2013-07-06 10:59:00,84.6,33.5,25.01,SW,227,6.3,8.7,16,0.00,,---,0.00,VWS V14.01,2013-07-06 15:59:00,
2013-07-06 11:02:00,84.7,33.6,25.01,WSW,238,6.3,8.3,16,0.00,,---,0.00,VWS V14.01,2013-07-06 16:02:00,
2013-07-06 11:03:00,84.7,33.6,25.01,WSW,257,8.3,8.3,16,0.00,,---,0.00,VWS V14.01,2013-07-06 16:03:00,
2013-07-06 11:04:00,85.1,33.9,25.01,SW,230,8.1,8.1,16,0.00,,---,0.00,VWS V14.01,2013-07-06 16:04:00,
2013-07-06 11:07:00,85.1,33.9,25.01,WSW,251,10.1,10.1,16,0.00,,---,0.00,VWS V14.01,2013-07-06 16:07:00,
2013-07-06 11:08:00,85.1,33.9,25.01,SW,228,6.3,6.3,16,0.00,,---,0.00,VWS V14.01,2013-07-06 16:08:00,
2013-07-06 11:09:00,85.1,33.9,25.01,SW,214,4.9,6.3,16,0.00,,---,0.00,VWS V14.01,2013-07-06 16:09:00,
2013-07-06 11:10:00,85.8,34.5,25.01,West,264,6.3,6.3,16,0.00,,---,0.00,VWS V14.01,2013-07-06 16:10:00,
2013-07-06 11:13:00,86.0,34.6,25.01,WSW,257,6.3,8.3,16,0.00,,---,0.00,VWS V14.01,2013-07-06 16:13:00,
2013-07-06 11:14:00,86.4,34.9,25.01,SW,236,4.0,6.3,16,0.00,,---,0.00,VWS V14.01,2013-07-06 16:14:00,
2013-07-06 11:15:00,86.4,34.9,25.01,WSW,245,10.1,10.1,16,0.00,,---,0.00,VWS V14.01,2013-07-06 16:15:00,
2013-07-06 11:18:00,86.4,34.9,25.01,WSW,238,5.8,6.3,16,0.00,,---,0.00,VWS V14.01,2013-07-06 16:18:00,
2013-07-06 11:19:00,86.4,34.9,25.01,WSW,247,5.8,7.2,16,0.00,,---,0.00,VWS V14.01,2013-07-06 16:19:00,
2013-07-06 11:20:00,87.1,35.5,25.01,SW,232,7.6,7.6,16,0.00,,---,0.00,VWS V14.01,2013-07-06 16:20:00,
2013-07-06 11:23:00,87.6,35.9,25.01,West,270,8.1,8.1,16,0.00,,---,0.00,VWS V14.01,2013-07-06 16:23:00,
2013-07-06 11:24:00,87.8,34.5,25.01,SW,224,8.1,8.1,15,0.00,,---,0.00,VWS V14.01,2013-07-06 16:24:00,
2013-07-06 11:25:00,87.8,34.5,25.01,WSW,241,10.5,12.3,15,0.00,,---,0.00,VWS V14.01,2013-07-06 16:25:00,
2013-07-06 11:29:00,88.0,31.0,25.01,WSW,245,8.7,8.7,13,0.00,,---,0.00,VWS V14.01,2013-07-06 16:29:00,
2013-07-06 11:31:00,88.0,31.0,25.01,SW,218,8.7,8.7,13,0.00,,---,0.00,VWS V14.01,2013-07-06 16:31:00,
2013-07-06 11:33:00,88.0,31.0,25.01,WSW,247,8.1,8.1,13,0.00,,---,0.00,VWS V14.01,2013-07-06 16:33:00,
2013-07-06 11:35:00,88.0,31.0,25.01,West,267,7.6,8.1,13,0.00,,---,0.00,VWS V14.01,2013-07-06 16:35:00,
2013-07-06 11:37:00,88.2,31.2,25.01,WSW,245,8.3,8.3,13,0.00,,---,0.00,VWS V14.01,2013-07-06 16:37:00,
2013-07-06 11:38:00,88.2,31.2,25.01,West,263,8.3,12.8,13,0.00,,---,0.00,VWS V14.01,2013-07-06 16:38:00,
2013-07-06 11:40:00,88.3,31.3,25.01,WSW,241,10.5,10.5,13,0.00,,---,0.00,VWS V14.01,2013-07-06 16:40:00,
2013-07-06 11:43:00,88.3,31.3,25.01,WSW,243,8.1,8.1,13,0.00,,---,0.00,VWS V14.01,2013-07-06 16:43:00,
2013-07-06 11:46:00,88.3,31.3,25.01,WSW,246,8.1,8.7,13,0.00,,---,0.00,VWS V14.01,2013-07-06 16:46:00,
2013-07-06 11:49:00,88.9,31.7,25.01,WNW,293,7.6,7.6,13,0.00,,---,0.00,VWS V14.01,2013-07-06 16:49:00,
2013-07-06 11:53:00,89.2,32.0,25.01,SSW,212,6.3,12.8,13,0.00,,---,0.00,VWS V14.01,2013-07-06 16:53:00,
2013-07-06 11:54:00,89.6,30.3,25.01,WSW,248,10.5,10.5,12,0.00,,---,0.00,VWS V14.01,2013-07-06 16:54:00,
2013-07-06 11:55:00,89.6,30.3,25.01,SW,235,8.7,12.3,12,0.00,,---,0.00,VWS V14.01,2013-07-06 16:55:00,
2013-07-06 11:58:00,89.4,32.2,25.01,WSW,240,5.4,5.4,13,0.00,,---,0.00,VWS V14.01,2013-07-06 16:58:00,
2013-07-06 11:59:00,89.4,32.2,25.01,West,266,8.1,8.1,13,0.00,,---,0.00,VWS V14.01,2013-07-06 16:59:00,
2013-07-06 12:01:00,89.4,32.2,25.01,West,265,11.0,11.0,13,0.00,,---,0.00,VWS V14.01,2013-07-06 17:01:00,
2013-07-06 12:04:00,89.4,32.2,25.01,SW,233,3.6,7.6,13,0.00,,---,0.00,VWS V14.01,2013-07-06 17:04:00,
2013-07-06 12:05:00,89.4,32.2,25.01,SW,216,7.6,7.6,13,0.00,,---,0.00,VWS V14.01,2013-07-06 17:05:00,
2013-07-06 12:06:00,90.1,30.7,25.01,SW,219,5.4,8.3,12,0.00,,---,0.00,VWS V14.01,2013-07-06 17:06:00,
2013-07-06 12:09:00,91.0,31.4,25.01,WSW,249,4.9,11.0,12,0.00,,---,0.00,VWS V14.01,2013-07-06 17:09:00,
2013-07-06 12:10:00,91.0,31.4,25.01,SW,233,10.1,10.1,12,0.00,,---,0.00,VWS V14.01,2013-07-06 17:10:00,
2013-07-06 12:11:00,91.4,31.7,25.01,SW,227,7.6,7.6,12,0.00,,---,0.00,VWS V14.01,2013-07-06 17:11:00,
2013-07-06 12:14:00,91.8,32.0,25.01,SSW,213,5.4,8.7,12,0.00,,---,0.00,VWS V14.01,2013-07-06 17:14:00,
2013-07-06 12:15:00,91.8,32.0,25.01,SSW,193,6.3,7.6,12,0.00,,---,0.00,VWS V14.01,2013-07-06 17:15:00,
2013-07-06 12:17:00,91.8,32.0,25.01,SSW,213,11.0,12.3,12,0.00,,---,0.00,VWS V14.01,2013-07-06 17:17:00,
2013-07-06 12:19:00,91.8,32.0,25.01,SW,216,8.3,10.5,12,0.00,,---,0.00,VWS V14.01,2013-07-06 17:19:00,
2013-07-06 12:21:00,91.2,31.6,25.01,SW,216,6.3,10.1,12,0.00,,---,0.00,VWS V14.01,2013-07-06 17:21:00,
2013-07-06 12:22:00,91.2,31.6,25.01,West,265,8.1,8.7,12,0.00,,---,0.00,VWS V14.01,2013-07-06 17:22:00,
2013-07-06 12:24:00,91.2,31.6,25.01,SW,224,6.3,6.3,12,0.00,,---,0.00,VWS V14.01,2013-07-06 17:24:00,
2013-07-06 12:49:00,92.3,32.4,24.98,WSW,240,5.4,8.1,12,0.00,,---,0.00,VWS V14.01,2013-07-06 17:49:00,
2013-07-06 12:54:00,92.8,32.8,24.98,WSW,246,8.7,8.7,12,0.00,,---,0.00,VWS V14.01,2013-07-06 17:54:00,
2013-07-06 12:55:00,93.0,33.0,24.98,WSW,251,5.4,8.7,12,0.00,,---,0.00,VWS V14.01,2013-07-06 17:55:00,
2013-07-06 13:00:00,93.2,31.0,24.98,WSW,244,7.6,8.7,11,0.00,,---,0.00,VWS V14.01,2013-07-06 18:00:00,
2013-07-06 13:01:00,93.2,31.0,24.98,WSW,244,8.3,8.3,11,0.00,,---,0.00,VWS V14.01,2013-07-06 18:01:00,
2013-07-06 13:05:00,93.2,31.0,24.98,SW,226,6.3,6.3,11,0.00,,---,0.00,VWS V14.01,2013-07-06 18:05:00,
2013-07-06 13:06:00,93.7,31.4,24.98,SSW,207,3.1,6.3,11,0.00,,---,0.00,VWS V14.01,2013-07-06 18:06:00,
2013-07-06 13:10:00,94.3,31.8,24.98,West,259,5.4,8.3,11,0.00,,---,0.00,VWS V14.01,2013-07-06 18:10:00,
2013-07-06 13:11:00,94.3,31.8,24.98,WNW,284,8.7,8.7,11,0.00,,---,0.00,VWS V14.01,2013-07-06 18:11:00,
2013-07-06 13:17:00,94.8,32.2,24.98,WSW,238,8.1,8.3,11,0.00,,---,0.00,VWS V14.01,2013-07-06 18:17:00,
2013-07-06 13:51:00,97.2,38.2,24.98,WNW,298,5.8,8.7,13,0.00,,---,0.00,VWS V14.01,2013-07-06 18:51:00,
2013-07-06 13:52:00,97.2,38.2,24.98,West,261,6.7,6.7,13,0.00,,---,0.00,VWS V14.01,2013-07-06 18:52:00,
2013-07-06 13:57:00,97.2,38.2,24.98,NNW,331,5.8,6.7,13,0.00,,---,0.00,VWS V14.01,2013-07-06 18:57:00,
2013-07-06 13:58:00,97.2,38.2,24.98,NNW,331,5.8,5.8,13,0.00,,---,0.00,VWS V14.01,2013-07-06 18:58:00,
2013-07-06 14:02:00,97.3,38.3,24.98,South,178,3.1,3.1,13,0.00,,---,0.00,VWS V14.01,2013-07-06 19:02:00,
2013-07-06 14:04:00,97.3,38.3,24.98,West,279,12.3,12.3,13,0.00,,---,0.00,VWS V14.01,2013-07-06 19:04:00,
2013-07-06 14:08:00,97.7,38.6,24.98,ESE,103,3.6,3.6,13,0.00,,---,0.00,VWS V14.01,2013-07-06 19:08:00,
2013-07-06 14:18:00,95.2,32.5,24.95,SE,144,5.8,5.8,11,0.00,,---,0.00,VWS V14.01,2013-07-06 19:18:00,
2013-07-06 14:19:00,95.4,32.6,24.95,South,177,7.6,7.6,11,0.00,,---,0.00,VWS V14.01,2013-07-06 19:19:00,
2013-07-06 14:23:00,95.5,32.7,24.95,SSW,194,0.0,2.2,11,0.00,,---,0.00,VWS V14.01,2013-07-06 19:23:00,
2013-07-06 14:24:00,95.5,32.7,24.95,SSW,194,0.0,2.2,11,0.00,,---,0.00,VWS V14.01,2013-07-06 19:24:00,
2013-07-06 14:28:00,96.4,39.5,24.95,SSW,212,5.4,7.6,14,0.00,,---,0.00,VWS V14.01,2013-07-06 19:28:00,
2013-07-06 14:29:00,96.4,39.5,24.95,SSW,204,5.4,5.4,14,0.00,,---,0.00,VWS V14.01,2013-07-06 19:29:00,
2013-07-06 14:33:00,96.6,39.7,24.95,SSW,203,6.3,8.1,14,0.00,,---,0.00,VWS V14.01,2013-07-06 19:33:00,
2013-07-06 14:34:00,96.6,39.7,24.95,SSW,203,9.6,9.6,14,0.00,,---,0.00,VWS V14.01,2013-07-06 19:34:00,
2013-07-06 14:35:00,96.6,39.7,24.95,SW,223,5.8,9.6,14,0.00,,---,0.00,VWS V14.01,2013-07-06 19:35:00,
2013-07-06 14:39:00,96.6,39.7,24.95,SSW,196,10.5,11.0,14,0.00,,---,0.00,VWS V14.01,2013-07-06 19:39:00,
2013-07-06 14:40:00,96.6,39.7,24.95,SSW,199,5.8,10.5,14,0.00,,---,0.00,VWS V14.01,2013-07-06 19:40:00,
2013-07-06 14:52:00,93.0,33.0,24.95,WNW,298,5.4,5.4,12,0.00,,---,0.00,VWS V14.01,2013-07-06 19:52:00,
2013-07-06 14:54:00,93.0,33.0,24.95,WNW,287,5.4,5.4,12,0.00,,---,0.00,VWS V14.01,2013-07-06 19:54:00,
2013-07-06 15:27:00,89.8,30.5,24.95,SSW,193,2.2,2.7,12,0.00,,---,0.00,VWS V14.01,2013-07-06 20:27:00,
2013-07-06 15:50:00,90.3,30.9,24.95,WNW,301,2.7,4.0,12,0.00,,---,0.00,VWS V14.01,2013-07-06 20:50:00,
2013-07-06 15:55:00,91.0,31.4,24.95,SW,218,6.3,6.3,12,0.00,,---,0.00,VWS V14.01,2013-07-06 20:55:00,
2013-07-06 15:56:00,91.0,31.4,24.95,SSW,206,5.8,5.8,12,0.00,,---,0.00,VWS V14.01,2013-07-06 20:56:00,
2013-07-06 16:01:00,94.6,32.0,24.95,SW,235,4.9,6.3,11,0.00,,---,0.00,VWS V14.01,2013-07-06 21:01:00,
2013-07-06 16:05:00,95.9,39.1,24.95,WNW,296,12.3,12.3,14,0.00,,---,0.00,VWS V14.01,2013-07-06 21:05:00,
2013-07-06 16:07:00,96.3,39.4,24.95,WNW,301,6.3,6.3,14,0.00,,---,0.00,VWS V14.01,2013-07-06 21:07:00,
2013-07-06 16:15:00,96.4,39.5,24.95,WNW,302,8.7,12.8,14,0.00,,---,0.00,VWS V14.01,2013-07-06 21:15:00,
2013-07-06 16:18:00,96.1,33.2,24.95,West,269,8.3,11.0,11,0.00,,---,0.00,VWS V14.01,2013-07-06 21:18:00,
2013-07-06 16:23:00,96.1,33.2,24.95,WNW,298,8.1,10.1,11,0.00,,---,0.00,VWS V14.01,2013-07-06 21:23:00,
2013-07-06 16:38:00,98.1,38.9,24.92,WSW,249,7.6,11.0,13,0.00,,---,0.00,VWS V14.01,2013-07-06 21:38:00,
2013-07-06 16:39:00,98.1,38.9,24.92,NW,306,12.3,12.3,13,0.00,,---,0.00,VWS V14.01,2013-07-06 21:39:00,
2013-07-06 16:54:00,97.9,38.8,24.92,NW,306,6.3,6.3,13,0.00,,---,0.00,VWS V14.01,2013-07-06 21:54:00,
2013-07-06 16:55:00,97.9,38.8,24.92,WSW,247,4.0,4.0,13,0.00,,---,0.00,VWS V14.01,2013-07-06 21:55:00,
2013-07-06 17:00:00,98.6,39.3,24.92,WNW,294,10.5,10.5,13,0.00,,---,0.00,VWS V14.01,2013-07-06 22:00:00,
2013-07-06 17:01:00,98.6,39.3,24.92,NW,310,5.8,8.1,13,0.00,,---,0.00,VWS V14.01,2013-07-06 22:01:00,
2013-07-06 17:05:00,98.6,39.3,24.92,SW,234,2.7,3.1,13,0.00,,---,0.00,VWS V14.01,2013-07-06 22:05:00,
2013-07-06 17:06:00,98.6,39.3,24.92,NE,47,3.1,3.1,13,0.00,,---,0.00,VWS V14.01,2013-07-06 22:06:00,
2013-07-06 17:10:00,98.4,39.2,24.92,NNE,32,0.0,2.2,13,0.00,,---,0.00,VWS V14.01,2013-07-06 22:10:00,
2013-07-06 17:11:00,98.4,39.2,24.92,East,79,5.8,5.8,13,0.00,,---,0.00,VWS V14.01,2013-07-06 22:11:00,
2013-07-06 17:12:00,98.6,39.3,24.92,ENE,75,5.8,5.8,13,0.00,,---,0.00,VWS V14.01,2013-07-06 22:12:00,
2013-07-06 17:16:00,98.2,39.0,24.92,NE,37,4.0,4.9,13,0.00,,---,0.00,VWS V14.01,2013-07-06 22:16:00,
2013-07-06 17:47:00,93.7,31.4,24.92,SE,144,7.6,7.6,11,0.00,,---,0.00,VWS V14.01,2013-07-06 22:47:00,
2013-07-06 17:49:00,93.4,31.1,24.92,South,180,8.3,8.3,11,0.00,,---,0.00,VWS V14.01,2013-07-06 22:49:00,
2013-07-06 17:53:00,93.4,31.1,24.92,South,184,8.3,8.3,11,0.00,,---,0.00,VWS V14.01,2013-07-06 22:53:00,
2013-07-06 17:54:00,93.4,31.1,24.92,SSE,166,8.3,8.7,11,0.00,,---,0.00,VWS V14.01,2013-07-06 22:54:00,
2013-07-06 17:58:00,90.3,30.9,24.92,South,176,7.6,10.5,12,0.00,,---,0.00,VWS V14.01,2013-07-06 22:58:00,
2013-07-06 18:00:00,90.1,30.7,24.92,South,186,8.3,8.7,12,0.00,,---,0.00,VWS V14.01,2013-07-06 23:00:00,
2013-07-06 18:03:00,89.8,30.5,24.92,South,190,7.6,8.1,12,0.00,,---,0.00,VWS V14.01,2013-07-06 23:03:00,
2013-07-06 18:04:00,89.8,30.5,24.92,SSE,160,7.6,7.6,12,0.00,,---,0.00,VWS V14.01,2013-07-06 23:04:00,
2013-07-06 18:08:00,89.4,32.2,24.92,SW,219,6.3,8.7,13,0.00,,---,0.00,VWS V14.01,2013-07-06 23:08:00,
2013-07-06 18:16:00,88.7,31.6,24.92,South,178,7.6,7.6,13,0.00,,---,0.00,VWS V14.01,2013-07-06 23:16:00,
2013-07-06 18:17:00,88.5,31.5,24.92,South,170,10.1,10.1,13,0.00,,---,0.00,VWS V14.01,2013-07-06 23:17:00,
2013-07-06 18:18:00,88.5,31.5,24.92,SSE,165,8.7,8.7,13,0.00,,---,0.00,VWS V14.01,2013-07-06 23:18:00,
2013-07-06 18:21:00,88.2,31.2,24.92,SSE,147,5.4,5.4,13,0.00,,---,0.00,VWS V14.01,2013-07-06 23:21:00,
2013-07-06 18:24:00,88.2,31.2,24.92,South,188,5.8,5.8,13,0.00,,---,0.00,VWS V14.01,2013-07-06 23:24:00,
2013-07-06 18:26:00,88.2,31.2,24.92,SSW,192,6.3,11.0,13,0.00,,---,0.00,VWS V14.01,2013-07-06 23:26:00,
2013-07-06 18:27:00,88.2,31.2,24.92,South,170,5.4,8.7,13,0.00,,---,0.00,VWS V14.01,2013-07-06 23:27:00,
2013-07-06 18:29:00,88.2,31.2,24.92,SSW,210,4.9,8.3,13,0.00,,---,0.00,VWS V14.01,2013-07-06 23:29:00,
2013-07-06 18:32:00,88.3,31.3,24.92,South,175,8.1,10.5,13,0.00,,---,0.00,VWS V14.01,2013-07-06 23:32:00,
2013-07-06 18:34:00,88.5,31.5,24.92,South,179,8.1,8.1,13,0.00,,---,0.00,VWS V14.01,2013-07-06 23:34:00,
2013-07-06 19:31:00,85.6,29.2,24.92,SSE,161,8.7,11.0,13,0.00,,---,0.00,VWS V14.01,2013-07-07 00:31:00,
2013-07-06 19:32:00,85.5,29.1,24.92,SW,217,8.3,8.3,13,0.00,,---,0.00,VWS V14.01,2013-07-07 00:32:00,
2013-07-06 21:02:00,80.4,28.6,24.95,South,171,5.8,5.8,15,0.00,,---,0.00,VWS V14.01,2013-07-07 02:02:00,
2013-07-06 21:07:00,79.9,28.1,24.95,South,180,6.7,6.7,15,0.00,,---,0.00,VWS V14.01,2013-07-07 02:07:00,
2013-07-06 21:12:00,79.7,28.0,24.95,SSE,163,8.3,9.2,15,0.00,,---,0.00,VWS V14.01,2013-07-07 02:12:00,
2013-07-06 21:13:00,79.7,28.0,24.95,SSE,149,10.5,10.5,15,0.00,,---,0.00,VWS V14.01,2013-07-07 02:13:00,
2013-07-06 21:18:00,79.3,27.7,24.95,SSE,162,8.7,10.1,15,0.00,,---,0.00,VWS V14.01,2013-07-07 02:18:00,
2013-07-06 21:19:00,79.2,27.6,24.95,SSE,154,6.3,8.1,15,0.00,,---,0.00,VWS V14.01,2013-07-07 02:19:00,
2013-07-06 21:23:00,79.2,27.6,24.95,South,169,8.7,8.7,15,0.00,,---,0.00,VWS V14.01,2013-07-07 02:23:00,
2013-07-06 21:24:00,79.2,27.6,24.95,South,173,6.7,8.7,15,0.00,,---,0.00,VWS V14.01,2013-07-07 02:24:00,
2013-07-06 21:25:00,79.0,27.4,24.95,South,173,8.7,8.7,15,0.00,,---,0.00,VWS V14.01,2013-07-07 02:25:00,
2013-07-06 21:28:00,78.8,27.3,24.95,SSE,166,8.1,8.1,15,0.00,,---,0.00,VWS V14.01,2013-07-07 02:28:00,
2013-07-06 21:29:00,78.6,27.1,24.95,SSE,151,8.1,8.1,15,0.00,,---,0.00,VWS V14.01,2013-07-07 02:29:00,
2013-07-06 21:30:00,78.6,27.1,24.95,SSE,151,8.1,8.1,15,0.00,,---,0.00,VWS V14.01,2013-07-07 02:30:00,
2013-07-06 21:33:00,78.4,27.0,24.95,South,186,7.2,8.1,15,0.00,,---,0.00,VWS V14.01,2013-07-07 02:33:00,
2013-07-06 21:35:00,78.4,27.0,24.95,South,179,8.1,8.1,15,0.00,,---,0.00,VWS V14.01,2013-07-07 02:35:00,
2013-07-06 21:39:00,78.1,26.7,24.95,South,170,8.1,8.1,15,0.00,,---,0.00,VWS V14.01,2013-07-07 02:39:00,
2013-07-06 21:41:00,78.1,26.7,24.95,South,172,8.7,8.7,15,0.00,,---,0.00,VWS V14.01,2013-07-07 02:41:00,
2013-07-06 21:44:00,78.1,26.7,24.95,South,173,8.7,8.7,15,0.00,,---,0.00,VWS V14.01,2013-07-07 02:44:00,
2013-07-06 21:46:00,77.9,26.6,24.95,SSE,155,8.3,8.3,15,0.00,,---,0.00,VWS V14.01,2013-07-07 02:46:00,
2013-07-06 21:49:00,77.7,26.4,24.95,SSE,167,8.7,8.7,15,0.00,,---,0.00,VWS V14.01,2013-07-07 02:49:00,
2013-07-06 21:51:00,77.5,26.3,24.95,SSE,158,8.7,8.7,15,0.00,,---,0.00,VWS V14.01,2013-07-07 02:51:00,
2013-07-06 21:52:00,77.5,26.3,24.95,South,182,5.8,8.7,15,0.00,,---,0.00,VWS V14.01,2013-07-07 02:52:00,
2013-07-06 21:56:00,77.5,26.3,24.95,SSE,149,6.3,8.3,15,0.00,,---,0.00,VWS V14.01,2013-07-07 02:56:00,
2013-07-06 21:57:00,77.5,26.3,24.95,ESE,116,7.6,7.6,15,0.00,,---,0.00,VWS V14.01,2013-07-07 02:57:00,
2013-07-06 21:58:00,77.5,26.3,24.95,SE,131,8.1,8.1,15,0.00,,---,0.00,VWS V14.01,2013-07-07 02:58:00,
2013-07-06 22:01:00,77.2,26.0,24.95,SSE,163,7.6,7.6,15,0.00,,---,0.00,VWS V14.01,2013-07-07 03:01:00,
2013-07-06 22:03:00,77.2,26.0,24.95,SSE,158,8.3,8.3,15,0.00,,---,0.00,VWS V14.01,2013-07-07 03:03:00,
2013-07-06 22:07:00,77.2,26.0,24.95,SSE,162,7.6,10.1,15,0.00,,---,0.00,VWS V14.01,2013-07-07 03:07:00,
2013-07-06 22:08:00,77.0,25.9,24.95,SSE,161,6.7,8.3,15,0.00,,---,0.00,VWS V14.01,2013-07-07 03:08:00,
2013-07-06 22:09:00,76.8,25.7,24.95,SSE,164,5.4,6.7,15,0.00,,---,0.00,VWS V14.01,2013-07-07 03:09:00,
2013-07-06 22:12:00,76.8,25.7,24.98,SSE,159,5.4,6.3,15,0.00,,---,0.00,VWS V14.01,2013-07-07 03:12:00,
2013-07-06 22:13:00,76.8,25.7,24.98,South,170,5.8,5.8,15,0.00,,---,0.00,VWS V14.01,2013-07-07 03:13:00,
2013-07-06 22:15:00,76.8,25.7,24.98,SE,145,5.4,5.4,15,0.00,,---,0.00,VWS V14.01,2013-07-07 03:15:00,
2013-07-06 22:17:00,76.1,25.1,24.98,SSE,156,5.8,6.3,15,0.00,,---,0.00,VWS V14.01,2013-07-07 03:17:00,
2013-07-06 22:18:00,76.1,25.1,24.98,South,171,8.7,8.7,15,0.00,,---,0.00,VWS V14.01,2013-07-07 03:18:00,
2013-07-06 22:20:00,76.1,25.1,24.98,SSE,153,5.8,6.3,15,0.00,,---,0.00,VWS V14.01,2013-07-07 03:20:00,
2013-07-06 22:22:00,76.1,25.1,24.98,South,183,5.8,7.6,15,0.00,,---,0.00,VWS V14.01,2013-07-07 03:22:00,
2013-07-06 22:24:00,76.1,25.1,24.98,SE,130,7.6,7.6,15,0.00,,---,0.00,VWS V14.01,2013-07-07 03:24:00,
2013-07-06 22:26:00,75.9,25.0,24.98,SE,128,5.4,5.8,15,0.00,,---,0.00,VWS V14.01,2013-07-07 03:26:00,
2013-07-06 22:27:00,75.9,25.0,24.98,SSE,158,4.9,4.9,15,0.00,,---,0.00,VWS V14.01,2013-07-07 03:27:00,
2013-07-06 22:29:00,75.7,24.9,24.98,SSE,164,4.9,6.3,15,0.00,,---,0.00,VWS V14.01,2013-07-07 03:29:00,
2013-07-06 22:31:00,75.6,24.7,24.98,SE,143,5.4,5.8,15,0.00,,---,0.00,VWS V14.01,2013-07-07 03:31:00,
2013-07-06 22:32:00,75.6,24.7,24.98,SSE,154,4.0,4.0,15,0.00,,---,0.00,VWS V14.01,2013-07-07 03:32:00,
2013-07-06 22:34:00,75.6,24.7,24.98,SSE,149,3.6,6.3,15,0.00,,---,0.00,VWS V14.01,2013-07-07 03:34:00,
2013-07-06 22:37:00,75.2,24.4,24.98,SSE,166,4.9,4.9,15,0.00,,---,0.00,VWS V14.01,2013-07-07 03:37:00,
2013-07-06 22:39:00,75.0,25.8,24.98,South,170,5.4,6.3,16,0.00,,---,0.00,VWS V14.01,2013-07-07 03:39:00,
2013-07-06 22:42:00,75.0,25.8,24.98,South,170,2.7,2.7,16,0.00,,---,0.00,VWS V14.01,2013-07-07 03:42:00,
2013-07-06 22:43:00,75.0,25.8,24.98,South,170,2.7,2.7,16,0.00,,---,0.00,VWS V14.01,2013-07-07 03:43:00,
2013-07-06 22:44:00,75.0,25.8,24.98,SE,136,4.0,4.0,16,0.00,,---,0.00,VWS V14.01,2013-07-07 03:44:00,
2013-07-06 22:48:00,74.8,25.7,24.98,SSE,154,2.7,3.6,16,0.00,,---,0.00,VWS V14.01,2013-07-07 03:48:00,
2013-07-06 22:50:00,74.8,25.7,24.98,SSE,153,2.7,2.7,16,0.00,,---,0.00,VWS V14.01,2013-07-07 03:50:00,
2013-07-06 22:53:00,74.3,25.2,24.98,SSE,153,3.1,3.1,16,0.00,,---,0.00,VWS V14.01,2013-07-07 03:53:00,
2013-07-06 22:54:00,74.3,25.2,24.98,SSE,153,3.1,3.1,16,0.00,,---,0.00,VWS V14.01,2013-07-07 03:54:00,
2013-07-06 22:55:00,74.1,25.1,24.98,SSE,153,3.1,3.1,16,0.00,,---,0.00,VWS V14.01,2013-07-07 03:55:00,
2013-07-06 23:00:00,73.8,27.6,24.98,SE,143,3.1,3.1,18,0.00,,---,0.00,VWS V14.01,2013-07-07 04:00:00,
2013-07-06 23:01:00,73.8,27.6,24.98,SE,141,2.2,3.1,18,0.00,,---,0.00,VWS V14.01,2013-07-07 04:01:00,
2013-07-06 23:02:00,73.8,27.6,24.98,SE,141,0.0,2.2,18,0.00,,---,0.00,VWS V14.01,2013-07-07 04:02:00,
2013-07-06 23:06:00,73.4,27.4,24.98,SE,141,0.0,0.0,18,0.00,,---,0.00,VWS V14.01,2013-07-07 04:06:00,
2013-07-06 23:07:00,73.2,28.5,24.98,SE,136,0.0,0.0,19,0.00,,---,0.00,VWS V14.01,2013-07-07 04:07:00,
2013-07-06 23:11:00,73.0,28.4,24.98,SE,124,2.7,3.6,19,0.00,,---,0.00,VWS V14.01,2013-07-07 04:11:00,
2013-07-06 23:12:00,73.0,28.4,24.98,ESE,123,3.6,3.6,19,0.00,,---,0.00,VWS V14.01,2013-07-07 04:12:00,
2013-07-06 23:16:00,72.7,28.1,24.98,ESE,114,3.6,3.6,19,0.00,,---,0.00,VWS V14.01,2013-07-07 04:16:00,
2013-07-06 23:17:00,72.7,28.1,24.98,ESE,113,4.0,4.0,19,0.00,,---,0.00,VWS V14.01,2013-07-07 04:17:00,
2013-07-06 23:19:00,72.7,28.1,24.98,ESE,113,3.1,3.6,19,0.00,,---,0.00,VWS V14.01,2013-07-07 04:19:00,
2013-07-06 23:21:00,72.7,28.1,24.98,ESE,113,3.1,3.1,19,0.00,,---,0.00,VWS V14.01,2013-07-07 04:21:00,
2013-07-06 23:22:00,72.7,28.1,24.98,ESE,113,3.1,3.1,19,0.00,,---,0.00,VWS V14.01,2013-07-07 04:22:00,
2013-07-06 23:24:00,72.7,28.1,25.01,ESE,105,3.6,3.6,19,0.00,,---,0.00,VWS V14.01,2013-07-07 04:24:00,
2013-07-06 23:26:00,72.1,27.6,25.01,ESE,111,4.0,4.0,19,0.00,,---,0.00,VWS V14.01,2013-07-07 04:26:00,
2013-07-06 23:27:00,72.1,27.6,25.01,ESE,111,4.0,4.0,19,0.00,,---,0.00,VWS V14.01,2013-07-07 04:27:00,
2013-07-06 23:29:00,72.0,27.5,25.01,ESE,111,3.1,3.6,19,0.00,,---,0.00,VWS V14.01,2013-07-07 04:29:00,
2013-07-06 23:31:00,72.0,27.5,25.01,ESE,123,5.4,5.4,19,0.00,,---,0.00,VWS V14.01,2013-07-07 04:31:00,
2013-07-06 23:32:00,72.0,27.5,25.01,SE,132,5.4,5.4,19,0.00,,---,0.00,VWS V14.01,2013-07-07 04:32:00,
2013-07-06 23:33:00,72.0,27.5,25.01,ESE,123,5.4,5.4,19,0.00,,---,0.00,VWS V14.01,2013-07-07 04:33:00,
2013-07-06 23:35:00,72.1,27.6,25.01,SSE,156,3.1,4.0,19,0.00,,---,0.00,VWS V14.01,2013-07-07 04:35:00,
2013-07-06 23:37:00,72.1,27.6,25.01,SSE,151,3.6,3.6,19,0.00,,---,0.00,VWS V14.01,2013-07-07 04:37:00,
2013-07-06 23:38:00,72.1,27.6,25.01,SSE,151,2.2,2.7,19,0.00,,---,0.00,VWS V14.01,2013-07-07 04:38:00,
2013-07-06 23:39:00,72.1,27.6,25.01,SSE,151,3.1,3.1,19,0.00,,---,0.00,VWS V14.01,2013-07-07 04:39:00,
2013-07-06 23:41:00,72.1,27.6,24.98,SSE,151,0.0,0.0,19,0.00,,---,0.00,VWS V14.01,2013-07-07 04:41:00,
2013-07-06 23:42:00,72.1,27.6,24.98,SSE,150,0.0,0.0,19,0.00,,---,0.00,VWS V14.01,2013-07-07 04:42:00,
2013-07-06 23:43:00,72.0,27.5,24.98,SSE,150,0.0,0.0,19,0.00,,---,0.00,VWS V14.01,2013-07-07 04:43:00,
2013-07-06 23:44:00,72.0,27.5,24.98,SSE,150,0.0,0.0,19,0.00,,---,0.00,VWS V14.01,2013-07-07 04:44:00,
2013-07-06 23:46:00,72.0,27.5,24.98,SE,142,3.1,3.1,19,0.00,,---,0.00,VWS V14.01,2013-07-07 04:46:00,
2013-07-06 23:47:00,71.8,27.3,24.98,SE,142,4.9,4.9,19,0.00,,---,0.00,VWS V14.01,2013-07-07 04:47:00,
2013-07-06 23:48:00,71.8,27.3,24.98,SE,137,3.6,3.6,19,0.00,,---,0.00,VWS V14.01,2013-07-07 04:48:00,
2013-07-06 23:50:00,71.6,27.2,24.98,SE,137,4.5,4.5,19,0.00,,---,0.00,VWS V14.01,2013-07-07 04:50:00,
2013-07-06 23:51:00,71.6,27.2,24.98,SE,137,3.6,3.6,19,0.00,,---,0.00,VWS V14.01,2013-07-07 04:51:00,
2013-07-06 23:52:00,71.6,27.2,24.98,SE,137,3.1,3.6,19,0.00,,---,0.00,VWS V14.01,2013-07-07 04:52:00,
2013-07-06 23:54:00,71.6,27.2,24.98,SE,133,4.0,4.0,19,0.00,,---,0.00,VWS V14.01,2013-07-07 04:54:00,
2013-07-06 23:56:00,71.6,27.2,25.01,SE,126,4.0,4.0,19,0.00,,---,0.00,VWS V14.01,2013-07-07 04:56:00,
2013-07-06 23:58:00,71.6,27.2,25.01,ESE,119,3.1,3.6,19,0.00,,---,0.00,VWS V14.01,2013-07-07 04:58:00,
2013-07-06 23:59:00,71.4,27.0,25.01,ESE,119,2.7,3.6,19,0.00,,---,0.00,VWS V14.01,2013-07-07 04:59:00,